| time (UTC) | temp F | wind direction | speed knots | gust knots | rain 1hr in | rain 24hr in | rain mn in | humidity % | barometer mb |
| 20260906211804 | 74 | 169 | 3.5 | 10.4 | 0.38 | 0.38 | 0.38 | 82 | 1014.6 |
| 20260906211603 | 73 | 144 | 7.0 | 10.4 | 0.38 | 0.38 | 0.38 | 85 | 1014.8 |
| 20260906211404 | 73 | 145 | 5.2 | 10.4 | 0.38 | 0.38 | 0.38 | 85 | 1014.9 |
| 20260906211203 | 72 | 157 | 3.5 | 10.4 | 0.38 | 0.38 | 0.38 | 86 | 1015.1 |
| 20260906211003 | 72 | 202 | 3.5 | 10.4 | 0.38 | 0.38 | 0.38 | 86 | 1015.4 |
| 20260906210803 | 72 | 234 | 6.1 | 10.4 | 0.38 | 0.38 | 0.38 | 84 | 1015.4 |
| 20260906210603 | 72 | 249 | 3.5 | 10.4 | 0.38 | 0.38 | 0.38 | 82 | 1015.4 |
| 20260906210403 | 72 | 189 | 3.5 | 10.4 | 0.38 | 0.38 | 0.38 | 77 | 1015.4 |
| 20260906210203 | 73 | 209 | 3.5 | 12.2 | 0.37 | 0.37 | 0.37 | 77 | 1015.4 |
| 20260906210004 | 73 | 185 | 3.5 | 12.2 | 0.36 | 0.36 | 0.36 | 76 | 1015.5 |
| 20260906205804 | 74 | 148 | 5.2 | 12.2 | 0.34 | 0.34 | 0.34 | 73 | 1015.5 |
| 20260906205603 | 74 | 207 | 5.2 | 12.2 | 0.32 | 0.32 | 0.32 | 73 | 1015.7 |
| 20260906205403 | 76 | 229 | 7.0 | 12.2 | 0.27 | 0.27 | 0.27 | 70 | 1015.7 |
| 20260906205204 | 78 | 214 | 3.5 | 12.2 | 0.22 | 0.22 | 0.22 | 69 | 1015.7 |
| 20260906205003 | 79 | 215 | 3.5 | 12.2 | 0.18 | 0.18 | 0.18 | 66 | 1015.5 |
| 20260906204803 | 80 | 200 | 2.6 | 12.2 | 0.13 | 0.13 | 0.13 | 60 | 1015.4 |
| 20260906204604 | 82 | 187 | 4.3 | 12.2 | 0.10 | 0.10 | 0.10 | 58 | 1015.4 |
| 20260906204403 | 83 | 170 | 4.3 | 20.9 | 0.07 | 0.07 | 0.07 | 56 | 1015.4 |
| 20260906204203 | 84 | 168 | 2.6 | 20.9 | 0.03 | 0.03 | 0.03 | 54 | 1015.4 |
| 20260906204004 | 85 | 127 | 3.5 | 20.9 | 0.02 | 0.02 | 0.02 | 51 | 1015.6 |
| 20260906203824 | 85 | 144 | 3.5 | 20.9 | 0.00 | 0.00 | 0.00 | 47 | 1015.6 |
| 20260906203624 | 85 | 169 | 6.1 | 20.9 | 0.00 | 0.00 | 0.00 | 46 | 1015.6 |
| 20260906203424 | 86 | 153 | 7.0 | 19.1 | 0.00 | 0.00 | 0.00 | 45 | 1015.5 |
| 20260906203225 | 86 | 141 | 8.7 | 20.9 | 0.00 | 0.00 | 0.00 | 43 | 1015.4 |
| 20260906203024 | 86 | 125 | 13.0 | 20.9 | 0.00 | 0.00 | 0.00 | 43 | 1015.2 |
| 20260906202824 | 86 | 131 | 12.2 | 20.9 | 0.00 | 0.00 | 0.00 | 43 | 1015.1 |
| 20260906202604 | 87 | 131 | 11.3 | 20.9 | 0.00 | 0.00 | 0.00 | 44 | 1015.1 |
| 20260906202403 | 87 | 138 | 9.6 | 24.3 | 0.00 | 0.00 | 0.00 | 42 | 1015.0 |
| 20260906202203 | 87 | 148 | 10.4 | 24.3 | 0.00 | 0.00 | 0.00 | 42 | 1014.9 |
| 20260906202004 | 88 | 132 | 11.3 | 24.3 | 0.00 | 0.00 | 0.00 | 42 | 1014.9 |
| 20260906201803 | 88 | 119 | 10.4 | 24.3 | 0.00 | 0.00 | 0.00 | 42 | 1014.9 |
| 20260906201603 | 88 | 133 | 11.3 | 24.3 | 0.00 | 0.00 | 0.00 | 42 | 1015.0 |
| 20260906201403 | 88 | 116 | 14.8 | 24.3 | 0.00 | 0.00 | 0.00 | 40 | 1015.0 |
| 20260906201203 | 88 | 122 | 13.0 | 19.1 | 0.00 | 0.00 | 0.00 | 42 | 1015.0 |
| 20260906201004 | 88 | 129 | 11.3 | 22.6 | 0.00 | 0.00 | 0.00 | 40 | 1015.0 |
| 20260906200803 | 88 | 132 | 13.0 | 22.6 | 0.00 | 0.00 | 0.00 | 40 | 1014.8 |
| 20260906200603 | 88 | 125 | 11.3 | 22.6 | 0.00 | 0.00 | 0.00 | 42 | 1014.8 |
| 20260906200403 | 88 | 130 | 12.2 | 22.6 | 0.00 | 0.00 | 0.00 | 40 | 1014.8 |
| 20260906200203 | 88 | 142 | 11.3 | 22.6 | 0.00 | 0.00 | 0.00 | 39 | 1014.7 |
| 20260906200004 | 89 | 142 | 11.3 | 21.7 | 0.00 | 0.00 | 0.00 | 39 | 1014.6 |
| 20260906195804 | 89 | 134 | 11.3 | 21.7 | 0.00 | 0.00 | 0.00 | 39 | 1014.7 |
| 20260906195603 | 89 | 131 | 12.2 | 21.7 | 0.00 | 0.00 | 0.00 | 38 | 1014.8 |
| 20260906195404 | 89 | 139 | 11.3 | 20.9 | 0.00 | 0.00 | 0.00 | 38 | 1014.8 |
| 20260906195203 | 90 | 121 | 9.6 | 21.7 | 0.00 | 0.00 | 0.00 | 39 | 1014.9 |
| 20260906195024 | 90 | 120 | 10.4 | 21.7 | 0.00 | 0.00 | 0.00 | 38 | 1014.8 |
| 20260906194824 | 90 | 125 | 10.4 | 21.7 | 0.00 | 0.00 | 0.00 | 38 | 1014.8 |
| 20260906194625 | 90 | 133 | 13.0 | 21.7 | 0.00 | 0.00 | 0.00 | 37 | 1014.8 |
| 20260906194404 | 91 | 133 | 13.0 | 21.7 | 0.00 | 0.00 | 0.00 | 36 | 1014.8 |
| 20260906194203 | 91 | 127 | 13.0 | 19.1 | 0.00 | 0.00 | 0.00 | 36 | 1014.8 |
| 20260906194003 | 92 | 136 | 13.0 | 19.1 | 0.00 | 0.00 | 0.00 | 36 | 1014.8 |
| 20260906193803 | 93 | 129 | 13.0 | 20.9 | 0.00 | 0.00 | 0.00 | 35 | 1014.8 |
| 20260906193603 | 93 | 124 | 13.0 | 20.9 | 0.00 | 0.00 | 0.00 | 35 | 1014.7 |
| 20260906193403 | 93 | 137 | 12.2 | 23.5 | 0.00 | 0.00 | 0.00 | 36 | 1014.7 |
| 20260906193204 | 93 | 139 | 12.2 | 23.5 | 0.00 | 0.00 | 0.00 | 36 | 1014.6 |
| 20260906193003 | 93 | 134 | 13.0 | 23.5 | 0.00 | 0.00 | 0.00 | 36 | 1014.7 |
| 20260906192803 | 92 | 133 | 12.2 | 23.5 | 0.00 | 0.00 | 0.00 | 37 | 1014.7 |
| 20260906192603 | 92 | 146 | 12.2 | 23.5 | 0.00 | 0.00 | 0.00 | 36 | 1014.6 |
| 20260906192403 | 92 | 128 | 13.9 | 21.7 | 0.00 | 0.00 | 0.00 | 36 | 1014.7 |
| 20260906192204 | 92 | 125 | 13.9 | 23.5 | 0.00 | 0.00 | 0.00 | 36 | 1014.7 |
| 20260906192003 | 92 | 123 | 15.6 | 23.5 | 0.00 | 0.00 | 0.00 | 36 | 1014.7 |
| 20260906191803 | 92 | 133 | 13.9 | 23.5 | 0.00 | 0.00 | 0.00 | 36 | 1014.8 |
| 20260906191603 | 92 | 132 | 12.2 | 23.5 | 0.00 | 0.00 | 0.00 | 37 | 1014.8 |
| 20260906191403 | 92 | 125 | 15.6 | 23.5 | 0.00 | 0.00 | 0.00 | 36 | 1014.9 |
| 20260906191203 | 92 | 125 | 14.8 | 23.5 | 0.00 | 0.00 | 0.00 | 36 | 1014.9 |
| 20260906191003 | 93 | 130 | 13.0 | 21.7 | 0.00 | 0.00 | 0.00 | 35 | 1014.8 |
| 20260906190804 | 93 | 122 | 12.2 | 21.7 | 0.00 | 0.00 | 0.00 | 36 | 1014.8 |
| 20260906190603 | 93 | 122 | 13.0 | 21.7 | 0.00 | 0.00 | 0.00 | 36 | 1014.8 |
| 20260906190403 | 92 | 117 | 13.0 | 21.7 | 0.00 | 0.00 | 0.00 | 36 | 1014.8 |
| 20260906190225 | 92 | 128 | 13.9 | 21.7 | 0.00 | 0.00 | 0.00 | 37 | 1014.7 |
| 20260906190024 | 92 | 126 | 13.0 | 21.7 | 0.00 | 0.00 | 0.00 | 37 | 1014.8 |
| 20260906185825 | 92 | 136 | 15.6 | 21.7 | 0.00 | 0.00 | 0.00 | 36 | 1014.8 |
| 20260906185603 | 92 | 133 | 13.0 | 21.7 | 0.00 | 0.00 | 0.00 | 36 | 1014.9 |
| 20260906185403 | 92 | 124 | 13.9 | 21.7 | 0.00 | 0.00 | 0.00 | 36 | 1014.9 |
| 20260906185203 | 92 | 128 | 13.0 | 19.1 | 0.00 | 0.00 | 0.00 | 36 | 1014.9 |
| 20260906185003 | 92 | 116 | 12.2 | 19.1 | 0.00 | 0.00 | 0.00 | 36 | 1015.0 |
| 20260906184803 | 92 | 126 | 13.0 | 19.1 | 0.00 | 0.00 | 0.00 | 36 | 1015.0 |
| 20260906184603 | 92 | 121 | 12.2 | 17.4 | 0.00 | 0.00 | 0.00 | 36 | 1015.1 |
| 20260906184424 | 92 | 126 | 12.2 | 18.2 | 0.00 | 0.00 | 0.00 | 36 | 1015.0 |
| 20260906184225 | 92 | 113 | 12.2 | 18.2 | 0.00 | 0.00 | 0.00 | 36 | 1015.1 |
| 20260906184025 | 92 | 121 | 11.3 | 18.2 | 0.00 | 0.00 | 0.00 | 36 | 1015.1 |
| 20260906183803 | 92 | 121 | 12.2 | 18.2 | 0.00 | 0.00 | 0.00 | 37 | 1015.1 |
| 20260906183603 | 92 | 120 | 13.0 | 18.2 | 0.00 | 0.00 | 0.00 | 36 | 1015.1 |
| 20260906183404 | 92 | 130 | 11.3 | 18.2 | 0.00 | 0.00 | 0.00 | 36 | 1015.2 |
| 20260906183203 | 92 | 130 | 11.3 | 18.2 | 0.00 | 0.00 | 0.00 | 36 | 1015.3 |
| 20260906183003 | 92 | 123 | 11.3 | 17.4 | 0.00 | 0.00 | 0.00 | 36 | 1015.2 |
| 20260906182803 | 92 | 120 | 12.2 | 17.4 | 0.00 | 0.00 | 0.00 | 36 | 1015.3 |
| 20260906182603 | 93 | 126 | 11.3 | 15.6 | 0.00 | 0.00 | 0.00 | 36 | 1015.3 |
| 20260906182403 | 93 | 117 | 9.6 | 15.6 | 0.00 | 0.00 | 0.00 | 37 | 1015.3 |
| 20260906182203 | 92 | 120 | 11.3 | 16.5 | 0.00 | 0.00 | 0.00 | 36 | 1015.3 |
| 20260906182004 | 92 | 118 | 10.4 | 16.5 | 0.00 | 0.00 | 0.00 | 37 | 1015.3 |
| 20260906181804 | 92 | 116 | 9.6 | 16.5 | 0.00 | 0.00 | 0.00 | 37 | 1015.4 |
| 20260906181604 | 92 | 116 | 10.4 | 16.5 | 0.00 | 0.00 | 0.00 | 37 | 1015.4 |
| 20260906181403 | 92 | 118 | 10.4 | 16.5 | 0.00 | 0.00 | 0.00 | 37 | 1015.4 |
| 20260906181203 | 92 | 125 | 8.7 | 16.5 | 0.00 | 0.00 | 0.00 | 37 | 1015.4 |
| 20260906181004 | 92 | 122 | 10.4 | 16.5 | 0.00 | 0.00 | 0.00 | 37 | 1015.4 |
| 20260906180803 | 92 | 115 | 9.6 | 16.5 | 0.00 | 0.00 | 0.00 | 37 | 1015.5 |
| 20260906180603 | 92 | 123 | 11.3 | 15.6 | 0.00 | 0.00 | 0.00 | 37 | 1015.5 |
| 20260906180404 | 92 | 117 | 10.4 | 15.6 | 0.00 | 0.00 | 0.00 | 37 | 1015.6 |
| 20260906180203 | 92 | 106 | 11.3 | 14.8 | 0.00 | 0.00 | 0.00 | 37 | 1015.6 |
| 20260906180003 | 92 | 118 | 9.6 | 14.8 | 0.00 | 0.00 | 0.00 | 38 | 1015.5 |
| 20260906175803 | 92 | 109 | 9.6 | 14.8 | 0.00 | 0.00 | 0.00 | 37 | 1015.5 |
| 20260906175603 | 92 | 111 | 10.4 | 14.8 | 0.00 | 0.00 | 0.00 | 37 | 1015.6 |
| 20260906175403 | 92 | 116 | 9.6 | 15.6 | 0.00 | 0.00 | 0.00 | 38 | 1015.6 |
| 20260906175204 | 92 | 110 | 9.6 | 15.6 | 0.00 | 0.00 | 0.00 | 37 | 1015.7 |
| 20260906175025 | 92 | 125 | 9.6 | 15.6 | 0.00 | 0.00 | 0.00 | 37 | 1015.7 |
| 20260906174824 | 92 | 124 | 11.3 | 15.6 | 0.00 | 0.00 | 0.00 | 37 | 1015.8 |
| 20260906174624 | 92 | 119 | 9.6 | 15.6 | 0.00 | 0.00 | 0.00 | 37 | 1015.8 |
| 20260906174403 | 91 | 123 | 10.4 | 16.5 | 0.00 | 0.00 | 0.00 | 38 | 1015.8 |
| 20260906174203 | 91 | 111 | 10.4 | 16.5 | 0.00 | 0.00 | 0.00 | 38 | 1015.8 |
| 20260906174003 | 91 | 104 | 8.7 | 16.5 | 0.00 | 0.00 | 0.00 | 38 | 1015.9 |
| 20260906173803 | 91 | 123 | 11.3 | 16.5 | 0.00 | 0.00 | 0.00 | 38 | 1015.9 |
| 20260906173603 | 90 | 118 | 12.2 | 16.5 | 0.00 | 0.00 | 0.00 | 38 | 1015.9 |
| 20260906173403 | 90 | 112 | 10.4 | 16.5 | 0.00 | 0.00 | 0.00 | 38 | 1015.9 |
| 20260906173225 | 90 | 107 | 11.3 | 16.5 | 0.00 | 0.00 | 0.00 | 38 | 1015.9 |
| 20260906173024 | 90 | 114 | 10.4 | 16.5 | 0.00 | 0.00 | 0.00 | 38 | 1016.0 |
| 20260906172825 | 90 | 117 | 11.3 | 16.5 | 0.00 | 0.00 | 0.00 | 38 | 1016.0 |
| 20260906172603 | 91 | 109 | 12.2 | 16.5 | 0.00 | 0.00 | 0.00 | 38 | 1016.0 |
| 20260906172404 | 91 | 105 | 8.7 | 15.6 | 0.00 | 0.00 | 0.00 | 38 | 1016.0 |
| 20260906172203 | 91 | 115 | 10.4 | 16.5 | 0.00 | 0.00 | 0.00 | 38 | 1016.0 |
| 20260906172003 | 91 | 126 | 10.4 | 16.5 | 0.00 | 0.00 | 0.00 | 38 | 1016.1 |
| 20260906171803 | 90 | 129 | 10.4 | 16.5 | 0.00 | 0.00 | 0.00 | 39 | 1016.0 |
| 20260906171603 | 90 | 116 | 10.4 | 16.5 | 0.00 | 0.00 | 0.00 | 38 | 1016.1 |
| 20260906171403 | 91 | 123 | 11.3 | 16.5 | 0.00 | 0.00 | 0.00 | 38 | 1016.2 |
| 20260906171204 | 91 | 129 | 11.3 | 16.5 | 0.00 | 0.00 | 0.00 | 38 | 1016.2 |
| 20260906171004 | 91 | 125 | 10.4 | 14.8 | 0.00 | 0.00 | 0.00 | 38 | 1016.2 |
| 20260906170803 | 91 | 124 | 10.4 | 14.8 | 0.00 | 0.00 | 0.00 | 38 | 1016.2 |
| 20260906170603 | 90 | 121 | 9.6 | 15.6 | 0.00 | 0.00 | 0.00 | 38 | 1016.3 |
| 20260906170403 | 90 | 114 | 9.6 | 15.6 | 0.00 | 0.00 | 0.00 | 38 | 1016.4 |
| 20260906170204 | 90 | 121 | 9.6 | 15.6 | 0.00 | 0.00 | 0.00 | 39 | 1016.4 |
| 20260906170003 | 90 | 123 | 10.4 | 15.6 | 0.00 | 0.00 | 0.00 | 38 | 1016.4 |
| 20260906165803 | 91 | 106 | 11.3 | 15.6 | 0.00 | 0.00 | 0.00 | 38 | 1016.4 |
| 20260906165604 | 91 | 105 | 9.6 | 13.9 | 0.00 | 0.00 | 0.00 | 38 | 1016.4 |
| 20260906165406 | 91 | 92 | 8.7 | 13.9 | 0.00 | 0.00 | 0.00 | 38 | 1016.5 |
| 20260906165206 | 91 | 114 | 8.7 | 13.9 | 0.00 | 0.00 | 0.00 | 38 | 1016.5 |
| 20260906165024 | 91 | 123 | 9.6 | 13.9 | 0.00 | 0.00 | 0.00 | 38 | 1016.5 |
| 20260906164824 | 90 | 117 | 7.0 | 12.2 | 0.00 | 0.00 | 0.00 | 39 | 1016.5 |
| 20260906164625 | 90 | 116 | 8.7 | 13.0 | 0.00 | 0.00 | 0.00 | 39 | 1016.5 |
| 20260906164404 | 90 | 118 | 7.8 | 13.0 | 0.00 | 0.00 | 0.00 | 39 | 1016.5 |
| 20260906164203 | 90 | 125 | 7.0 | 13.0 | 0.00 | 0.00 | 0.00 | 38 | 1016.5 |
| 20260906164003 | 90 | 120 | 8.7 | 13.0 | 0.00 | 0.00 | 0.00 | 38 | 1016.5 |
| 20260906163803 | 90 | 117 | 9.6 | 13.0 | 0.00 | 0.00 | 0.00 | 39 | 1016.5 |
| 20260906163603 | 90 | 114 | 8.7 | 13.0 | 0.00 | 0.00 | 0.00 | 39 | 1016.6 |
| 20260906163403 | 90 | 112 | 7.0 | 11.3 | 0.00 | 0.00 | 0.00 | 40 | 1016.6 |
| 20260906163203 | 90 | 109 | 6.1 | 11.3 | 0.00 | 0.00 | 0.00 | 42 | 1016.6 |
| 20260906163003 | 90 | 108 | 7.0 | 11.3 | 0.00 | 0.00 | 0.00 | 40 | 1016.7 |
| 20260906162803 | 89 | 110 | 7.8 | 11.3 | 0.00 | 0.00 | 0.00 | 40 | 1016.7 |
| 20260906162603 | 89 | 91 | 7.0 | 11.3 | 0.00 | 0.00 | 0.00 | 40 | 1016.8 |
| 20260906162403 | 89 | 90 | 5.2 | 11.3 | 0.00 | 0.00 | 0.00 | 40 | 1016.7 |
| 20260906162206 | 89 | 80 | 6.1 | 11.3 | 0.00 | 0.00 | 0.00 | 40 | 1016.8 |
| 20260906162003 | 89 | 101 | 7.0 | 11.3 | 0.00 | 0.00 | 0.00 | 42 | 1016.8 |
| 20260906161803 | 89 | 89 | 7.0 | 11.3 | 0.00 | 0.00 | 0.00 | 42 | 1016.8 |
| 20260906161603 | 88 | 99 | 7.0 | 11.3 | 0.00 | 0.00 | 0.00 | 42 | 1016.8 |
| 20260906161403 | 88 | 86 | 7.8 | 11.3 | 0.00 | 0.00 | 0.00 | 43 | 1016.8 |
| 20260906161203 | 88 | 105 | 7.0 | 11.3 | 0.00 | 0.00 | 0.00 | 43 | 1016.8 |
| 20260906161003 | 88 | 97 | 7.0 | 11.3 | 0.00 | 0.00 | 0.00 | 44 | 1016.8 |
| 20260906160803 | 87 | 95 | 6.1 | 10.4 | 0.00 | 0.00 | 0.00 | 44 | 1016.8 |
| 20260906160603 | 87 | 103 | 7.0 | 10.4 | 0.00 | 0.00 | 0.00 | 44 | 1016.8 |
| 20260906160403 | 87 | 126 | 7.0 | 10.4 | 0.00 | 0.00 | 0.00 | 43 | 1016.8 |
| 20260906160204 | 87 | 98 | 7.0 | 10.4 | 0.00 | 0.00 | 0.00 | 45 | 1016.8 |
| 20260906160004 | 87 | 101 | 6.1 | 11.3 | 0.00 | 0.00 | 0.00 | 44 | 1016.8 |
| 20260906155804 | 87 | 100 | 7.0 | 11.3 | 0.00 | 0.00 | 0.00 | 45 | 1016.8 |
| 20260906155624 | 87 | 103 | 7.0 | 11.3 | 0.00 | 0.00 | 0.00 | 45 | 1016.8 |
| 20260906155424 | 87 | 102 | 6.1 | 11.3 | 0.00 | 0.00 | 0.00 | 45 | 1016.8 |
| 20260906155224 | 87 | 107 | 7.0 | 11.3 | 0.00 | 0.00 | 0.00 | 44 | 1016.8 |
| 20260906155003 | 87 | 91 | 7.0 | 10.4 | 0.00 | 0.00 | 0.00 | 45 | 1016.8 |
| 20260906154804 | 87 | 111 | 6.1 | 8.7 | 0.00 | 0.00 | 0.00 | 45 | 1016.8 |
| 20260906154603 | 87 | 140 | 3.5 | 7.8 | 0.00 | 0.00 | 0.00 | 45 | 1016.7 |
| 20260906154404 | 87 | 99 | 2.6 | 9.6 | 0.00 | 0.00 | 0.00 | 46 | 1016.7 |
| 20260906154203 | 86 | 141 | 3.5 | 10.4 | 0.00 | 0.00 | 0.00 | 43 | 1016.8 |
| 20260906154004 | 86 | 181 | 3.5 | 10.4 | 0.00 | 0.00 | 0.00 | 44 | 1016.7 |
| 20260906153803 | 86 | 178 | 3.5 | 10.4 | 0.00 | 0.00 | 0.00 | 44 | 1016.7 |
| 20260906153603 | 86 | 156 | 5.2 | 10.4 | 0.00 | 0.00 | 0.00 | 45 | 1016.8 |
| 20260906153404 | 86 | 135 | 6.1 | 10.4 | 0.00 | 0.00 | 0.00 | 45 | 1016.7 |
| 20260906153224 | 85 | 146 | 4.3 | 8.7 | 0.00 | 0.00 | 0.00 | 46 | 1016.8 |
| 20260906153024 | 85 | 120 | 2.6 | 8.7 | 0.00 | 0.00 | 0.00 | 49 | 1016.8 |
| 20260906152824 | 85 | 125 | 3.5 | 8.7 | 0.00 | 0.00 | 0.00 | 49 | 1016.8 |
| 20260906152603 | 85 | 132 | 3.5 | 8.7 | 0.00 | 0.00 | 0.00 | 48 | 1016.9 |
| 20260906152403 | 84 | 137 | 5.2 | 8.7 | 0.00 | 0.00 | 0.00 | 49 | 1016.9 |
| 20260906152203 | 84 | 131 | 5.2 | 8.7 | 0.00 | 0.00 | 0.00 | 49 | 1016.9 |
| 20260906152003 | 84 | 132 | 5.2 | 8.7 | 0.00 | 0.00 | 0.00 | 51 | 1016.9 |
| 20260906151803 | 84 | 128 | 4.3 | 8.7 | 0.00 | 0.00 | 0.00 | 51 | 1016.9 |
| 20260906151603 | 83 | 108 | 4.3 | 8.7 | 0.00 | 0.00 | 0.00 | 51 | 1016.9 |
| 20260906151403 | 83 | 101 | 5.2 | 8.7 | 0.00 | 0.00 | 0.00 | 51 | 1016.9 |
| 20260906151203 | 83 | 121 | 5.2 | 10.4 | 0.00 | 0.00 | 0.00 | 53 | 1017.0 |
| 20260906151004 | 82 | 104 | 4.3 | 10.4 | 0.00 | 0.00 | 0.00 | 54 | 1017.0 |
| 20260906150803 | 82 | 92 | 6.1 | 10.4 | 0.00 | 0.00 | 0.00 | 54 | 1017.0 |
| 20260906150603 | 82 | 103 | 4.3 | 10.4 | 0.00 | 0.00 | 0.00 | 55 | 1017.0 |
| 20260906150404 | 82 | 89 | 7.0 | 10.4 | 0.00 | 0.00 | 0.00 | 55 | 1017.0 |
| 20260906150204 | 82 | 89 | 6.1 | 9.6 | 0.00 | 0.00 | 0.00 | 55 | 1017.0 |
| 20260906150004 | 82 | 81 | 5.2 | 7.8 | 0.00 | 0.00 | 0.00 | 55 | 1017.1 |
| 20260906145804 | 82 | 106 | 2.6 | 7.8 | 0.00 | 0.00 | 0.00 | 55 | 1017.2 |
| 20260906145624 | 82 | 71 | 0.9 | 3.5 | 0.00 | 0.00 | 0.00 | 55 | 1017.1 |
| 20260906145424 | 81 | 79 | 0.9 | 3.5 | 0.00 | 0.00 | 0.00 | 55 | 1017.2 |
| 20260906145224 | 81 | 80 | 1.7 | 3.5 | 0.00 | 0.00 | 0.00 | 56 | 1017.2 |
| 20260906145004 | 81 | 102 | 0.9 | 3.5 | 0.00 | 0.00 | 0.00 | 56 | 1017.3 |
| 20260906144803 | 81 | 88 | 1.7 | 3.5 | 0.00 | 0.00 | 0.00 | 57 | 1017.3 |
| 20260906144603 | 81 | 103 | 1.7 | 3.5 | 0.00 | 0.00 | 0.00 | 57 | 1017.4 |
| 20260906144403 | 80 | 75 | 1.7 | 2.6 | 0.00 | 0.00 | 0.00 | 56 | 1017.4 |
| 20260906144203 | 80 | 153 | 0.9 | 2.6 | 0.00 | 0.00 | 0.00 | 57 | 1017.4 |
| 20260906144004 | 80 | 105 | 1.7 | 2.6 | 0.00 | 0.00 | 0.00 | 57 | 1017.4 |
| 20260906143824 | 80 | 82 | 0.9 | 3.5 | 0.00 | 0.00 | 0.00 | 58 | 1017.4 |
| 20260906143624 | 80 | 84 | 1.7 | 5.2 | 0.00 | 0.00 | 0.00 | 58 | 1017.5 |
| 20260906143424 | 80 | 100 | 1.7 | 5.2 | 0.00 | 0.00 | 0.00 | 59 | 1017.5 |
| 20260906143203 | 79 | 97 | 1.7 | 5.2 | 0.00 | 0.00 | 0.00 | 58 | 1017.4 |
| 20260906143004 | 79 | 101 | 2.6 | 5.2 | 0.00 | 0.00 | 0.00 | 58 | 1017.4 |
| 20260906142803 | 79 | 94 | 2.6 | 5.2 | 0.00 | 0.00 | 0.00 | 58 | 1017.4 |
| 20260906142603 | 78 | 98 | 1.7 | 3.5 | 0.00 | 0.00 | 0.00 | 59 | 1017.4 |
| 20260906142403 | 78 | 71 | 1.7 | 3.5 | 0.00 | 0.00 | 0.00 | 59 | 1017.4 |
| 20260906142203 | 77 | 23 | 0.9 | 1.7 | 0.00 | 0.00 | 0.00 | 60 | 1017.4 |
| 20260906142003 | 77 | 0 | 0.0 | 0.0 | 0.00 | 0.00 | 0.00 | 61 | 1017.4 |
| 20260906141803 | 77 | 0 | 0.0 | 0.0 | 0.00 | 0.00 | 0.00 | 61 | 1017.4 |
| 20260906141603 | 76 | 0 | 0.0 | 0.0 | 0.00 | 0.00 | 0.00 | 63 | 1017.4 |
| 20260906141403 | 76 | 0 | 0.0 | 0.0 | 0.00 | 0.00 | 0.00 | 64 | 1017.4 |
| 20260906141203 | 76 | 0 | 0.0 | 0.0 | 0.00 | 0.00 | 0.00 | 64 | 1017.4 |
| 20260906141003 | 76 | 0 | 0.0 | 0.0 | 0.00 | 0.00 | 0.00 | 64 | 1017.4 |
| 20260906140803 | 75 | 0 | 0.0 | 0.0 | 0.00 | 0.00 | 0.00 | 64 | 1017.4 |
| 20260906140603 | 75 | 0 | 0.0 | 0.0 | 0.00 | 0.00 | 0.00 | 64 | 1017.3 |
| 20260906140403 | 75 | 0 | 0.0 | 0.0 | 0.00 | 0.00 | 0.00 | 64 | 1017.4 |
| 20260906140203 | 75 | 0 | 0.0 | 0.0 | 0.00 | 0.00 | 0.00 | 64 | 1017.4 |
| 20260906140004 | 75 | 0 | 0.0 | 0.0 | 0.00 | 0.00 | 0.00 | 64 | 1017.4 |
| 20260906135804 | 75 | 0 | 0.0 | 0.0 | 0.00 | 0.00 | 0.00 | 65 | 1017.5 |
| 20260906135603 | 75 | 0 | 0.0 | 0.0 | 0.00 | 0.00 | 0.00 | 64 | 1017.5 |
| 20260906135403 | 75 | 0 | 0.0 | 0.0 | 0.00 | 0.00 | 0.00 | 65 | 1017.5 |
| 20260906135204 | 75 | 0 | 0.0 | 0.0 | 0.00 | 0.00 | 0.00 | 65 | 1017.5 |
| 20260906135024 | 74 | 0 | 0.0 | 0.0 | 0.00 | 0.00 | 0.00 | 66 | 1017.4 |
| 20260906134824 | 74 | 0 | 0.0 | 0.0 | 0.00 | 0.00 | 0.00 | 66 | 1017.5 |
| 20260906134624 | 74 | 0 | 0.0 | 0.0 | 0.00 | 0.00 | 0.00 | 66 | 1017.5 |
| 20260906134403 | 74 | 0 | 0.0 | 0.0 | 0.00 | 0.00 | 0.00 | 66 | 1017.6 |
| 20260906134203 | 74 | 0 | 0.0 | 0.0 | 0.00 | 0.00 | 0.00 | 66 | 1017.6 |
| 20260906134003 | 73 | 0 | 0.0 | 0.0 | 0.00 | 0.00 | 0.00 | 67 | 1017.6 |
| 20260906133824 | 73 | 0 | 0.0 | 0.0 | 0.00 | 0.00 | 0.00 | 67 | 1017.5 |
| 20260906133624 | 73 | 0 | 0.0 | 0.0 | 0.00 | 0.00 | 0.00 | 67 | 1017.6 |
| 20260906133424 | 73 | 0 | 0.0 | 0.0 | 0.00 | 0.00 | 0.00 | 67 | 1017.4 |
| 20260906133203 | 72 | 0 | 0.0 | 0.0 | 0.00 | 0.00 | 0.00 | 68 | 1017.5 |
| 20260906133003 | 72 | 0 | 0.0 | 0.0 | 0.00 | 0.00 | 0.00 | 68 | 1017.5 |
| 20260906132803 | 72 | 0 | 0.0 | 0.0 | 0.00 | 0.00 | 0.00 | 68 | 1017.5 |
| 20260906132624 | 71 | 0 | 0.0 | 0.0 | 0.00 | 0.00 | 0.00 | 68 | 1017.5 |
| 20260906132424 | 71 | 0 | 0.0 | 0.0 | 0.00 | 0.00 | 0.00 | 69 | 1017.4 |
| 20260906132224 | 71 | 0 | 0.0 | 0.0 | 0.00 | 0.00 | 0.00 | 69 | 1017.4 |
| 20260906132003 | 71 | 0 | 0.0 | 0.0 | 0.00 | 0.00 | 0.00 | 69 | 1017.4 |
| 20260906131804 | 71 | 0 | 0.0 | 0.0 | 0.00 | 0.00 | 0.00 | 69 | 1017.4 |
| 20260906131603 | 71 | 0 | 0.0 | 0.0 | 0.00 | 0.00 | 0.00 | 68 | 1017.4 |
| 20260906131403 | 71 | 0 | 0.0 | 0.0 | 0.00 | 0.00 | 0.00 | 69 | 1017.4 |
| 20260906131203 | 71 | 0 | 0.0 | 0.0 | 0.00 | 0.00 | 0.00 | 70 | 1017.4 |
| 20260906131004 | 71 | 0 | 0.0 | 1.7 | 0.00 | 0.00 | 0.00 | 69 | 1017.3 |
| 20260906130824 | 71 | 0 | 0.0 | 1.7 | 0.00 | 0.00 | 0.00 | 69 | 1017.3 |
| 20260906130624 | 71 | 0 | 0.0 | 1.7 | 0.00 | 0.00 | 0.00 | 69 | 1017.3 |
| 20260906130424 | 70 | 0 | 0.0 | 2.6 | 0.00 | 0.00 | 0.00 | 68 | 1017.3 |
| 20260906130203 | 70 | 215 | 0.9 | 5.2 | 0.00 | 0.00 | 0.00 | 68 | 1017.3 |
| 20260906130003 | 70 | 209 | 0.9 | 5.2 | 0.00 | 0.00 | 0.00 | 68 | 1017.3 |
| 20260906125803 | 70 | 188 | 0.9 | 5.2 | 0.00 | 0.00 | 0.00 | 69 | 1017.2 |
| 20260906125603 | 70 | 114 | 1.7 | 5.2 | 0.00 | 0.00 | 0.00 | 69 | 1017.3 |
| 20260906125404 | 70 | 91 | 2.6 | 5.2 | 0.00 | 0.00 | 0.00 | 69 | 1017.2 |
| 20260906125203 | 70 | 124 | 1.7 | 2.6 | 0.00 | 0.00 | 0.00 | 69 | 1017.2 |
| 20260906125004 | 69 | 192 | 0.9 | 2.6 | 0.00 | 0.00 | 0.00 | 70 | 1017.2 |
| 20260906124803 | 69 | 218 | 1.7 | 2.6 | 0.00 | 0.00 | 0.00 | 70 | 1017.1 |
| 20260906124603 | 69 | 224 | 1.7 | 2.6 | 0.00 | 0.00 | 0.00 | 70 | 1017.1 |
| 20260906124403 | 69 | 208 | 1.7 | 2.6 | 0.00 | 0.00 | 0.00 | 70 | 1017.1 |
| 20260906124203 | 69 | 196 | 1.7 | 3.5 | 0.00 | 0.00 | 0.00 | 70 | 1017.1 |
| 20260906124003 | 69 | 194 | 1.7 | 3.5 | 0.00 | 0.00 | 0.00 | 70 | 1017.0 |
| 20260906123803 | 69 | 203 | 1.7 | 3.5 | 0.00 | 0.00 | 0.00 | 70 | 1016.9 |
| 20260906123603 | 69 | 184 | 1.7 | 3.5 | 0.00 | 0.00 | 0.00 | 69 | 1016.9 |
| 20260906123403 | 69 | 170 | 0.9 | 3.5 | 0.00 | 0.00 | 0.00 | 69 | 1016.9 |
| 20260906123203 | 69 | 162 | 0.9 | 3.5 | 0.00 | 0.00 | 0.00 | 69 | 1016.8 |
| 20260906123003 | 69 | 217 | 1.7 | 3.5 | 0.00 | 0.00 | 0.00 | 69 | 1016.8 |
| 20260906122803 | 69 | 25 | 1.7 | 3.5 | 0.00 | 0.00 | 0.00 | 70 | 1016.8 |
| 20260906122603 | 69 | 279 | 1.7 | 3.5 | 0.00 | 0.00 | 0.00 | 70 | 1016.8 |
| 20260906122403 | 69 | 252 | 1.7 | 2.6 | 0.00 | 0.00 | 0.00 | 70 | 1016.8 |
| 20260906122203 | 69 | 241 | 1.7 | 2.6 | 0.00 | 0.00 | 0.00 | 70 | 1016.8 |
| 20260906122004 | 69 | 342 | 0.9 | 2.6 | 0.00 | 0.00 | 0.00 | 70 | 1016.7 |
| 20260906121803 | 69 | 314 | 0.9 | 2.6 | 0.00 | 0.00 | 0.00 | 70 | 1016.8 |
| 20260906121603 | 69 | 329 | 0.9 | 2.6 | 0.00 | 0.00 | 0.00 | 69 | 1016.7 |
| 20260906121403 | 69 | 329 | 1.7 | 2.6 | 0.00 | 0.00 | 0.00 | 69 | 1016.8 |
| 20260906121203 | 69 | 277 | 1.7 | 3.5 | 0.00 | 0.00 | 0.00 | 69 | 1016.8 |
| 20260906121003 | 69 | 265 | 0.9 | 3.5 | 0.00 | 0.00 | 0.00 | 69 | 1016.8 |
| 20260906120803 | 69 | 259 | 0.9 | 3.5 | 0.00 | 0.00 | 0.00 | 69 | 1016.8 |
| 20260906120603 | 69 | 234 | 0.9 | 3.5 | 0.00 | 0.00 | 0.00 | 69 | 1016.8 |
| 20260906120403 | 69 | 242 | 2.6 | 3.5 | 0.00 | 0.00 | 0.00 | 68 | 1016.8 |
| 20260906120203 | 70 | 245 | 1.7 | 2.6 | 0.00 | 0.00 | 0.00 | 68 | 1016.8 |
| 20260906120003 | 70 | 238 | 1.7 | 2.6 | 0.00 | 0.00 | 0.00 | 68 | 1016.8 |
| 20260906115803 | 70 | 222 | 0.9 | 2.6 | 0.00 | 0.00 | 0.00 | 67 | 1016.9 |
| 20260906115603 | 70 | 162 | 0.0 | 2.6 | 0.00 | 0.00 | 0.00 | 67 | 1016.8 |
| 20260906115403 | 70 | 175 | 0.9 | 2.6 | 0.00 | 0.00 | 0.00 | 67 | 1016.8 |
| 20260906115203 | 71 | 175 | 1.7 | 2.6 | 0.00 | 0.00 | 0.00 | 66 | 1016.8 |
| 20260906115003 | 71 | 125 | 2.6 | 2.6 | 0.00 | 0.00 | 0.00 | 66 | 1016.6 |
| 20260906114803 | 71 | 136 | 1.7 | 2.6 | 0.00 | 0.00 | 0.00 | 66 | 1016.6 |
| 20260906114603 | 71 | 111 | 0.9 | 4.3 | 0.00 | 0.00 | 0.00 | 66 | 1016.6 |
| 20260906114403 | 71 | 78 | 0.0 | 4.3 | 0.00 | 0.00 | 0.00 | 66 | 1016.5 |
| 20260906114203 | 71 | 66 | 0.9 | 4.3 | 0.00 | 0.00 | 0.00 | 66 | 1016.5 |
| 20260906114003 | 71 | 78 | 0.9 | 4.3 | 0.00 | 0.00 | 0.00 | 66 | 1016.5 |
| 20260906113824 | 71 | 98 | 1.7 | 4.3 | 0.00 | 0.00 | 0.00 | 66 | 1016.5 |
| 20260906113624 | 71 | 153 | 2.6 | 4.3 | 0.00 | 0.00 | 0.00 | 66 | 1016.5 |
| 20260906113424 | 71 | 114 | 0.9 | 5.2 | 0.00 | 0.00 | 0.00 | 66 | 1016.5 |
| 20260906113203 | 71 | 106 | 0.0 | 5.2 | 0.00 | 0.00 | 0.00 | 66 | 1016.6 |
| 20260906113003 | 71 | 110 | 0.9 | 5.2 | 0.00 | 0.00 | 0.00 | 66 | 1016.6 |
| 20260906112803 | 71 | 143 | 2.6 | 5.2 | 0.00 | 0.00 | 0.00 | 67 | 1016.6 |
| 20260906112603 | 71 | 203 | 3.5 | 5.2 | 0.00 | 0.00 | 0.00 | 66 | 1016.6 |
| 20260906112403 | 71 | 92 | 1.7 | 4.3 | 0.00 | 0.00 | 0.00 | 66 | 1016.6 |
| 20260906112203 | 71 | 205 | 2.6 | 4.3 | 0.00 | 0.00 | 0.00 | 66 | 1016.6 |
| 20260906112003 | 71 | 78 | 1.7 | 2.6 | 0.00 | 0.00 | 0.00 | 66 | 1016.6 |
| 20260906111804 | 71 | 247 | 1.7 | 2.6 | 0.00 | 0.00 | 0.00 | 66 | 1016.7 |
| 20260906111603 | 71 | 67 | 0.0 | 4.3 | 0.00 | 0.00 | 0.00 | 65 | 1016.8 |
| 20260906111403 | 72 | 67 | 0.0 | 6.1 | 0.00 | 0.00 | 0.00 | 65 | 1016.8 |
| 20260906111203 | 72 | 67 | 0.0 | 6.1 | 0.00 | 0.00 | 0.00 | 64 | 1016.8 |
| 20260906111003 | 72 | 69 | 1.7 | 6.1 | 0.00 | 0.00 | 0.00 | 64 | 1016.8 |
| 20260906110803 | 72 | 67 | 1.7 | 6.1 | 0.00 | 0.00 | 0.00 | 63 | 1016.7 |
| 20260906110603 | 73 | 107 | 3.5 | 7.8 | 0.00 | 0.00 | 0.00 | 63 | 1016.8 |
| 20260906110403 | 73 | 220 | 2.6 | 7.8 | 0.00 | 0.00 | 0.00 | 63 | 1016.8 |
| 20260906110203 | 72 | 253 | 3.5 | 7.8 | 0.00 | 0.00 | 0.00 | 64 | 1016.8 |
| 20260906110003 | 72 | 310 | 1.7 | 7.8 | 0.00 | 0.00 | 0.00 | 64 | 1016.8 |
| 20260906105803 | 72 | 81 | 3.5 | 7.8 | 0.00 | 0.00 | 0.00 | 65 | 1016.8 |
| 20260906105603 | 72 | 198 | 0.9 | 3.5 | 0.00 | 0.00 | 0.00 | 64 | 1016.8 |
| 20260906105403 | 72 | 0 | 0.0 | 1.7 | 0.00 | 0.00 | 0.00 | 64 | 1016.8 |
| 20260906105203 | 72 | 0 | 0.0 | 1.7 | 0.00 | 0.00 | 0.00 | 63 | 1016.8 |
| 20260906105003 | 73 | 113 | 0.0 | 1.7 | 0.00 | 0.00 | 0.00 | 63 | 1016.7 |
| 20260906104803 | 73 | 113 | 0.0 | 6.1 | 0.00 | 0.00 | 0.00 | 63 | 1016.7 |
| 20260906104603 | 73 | 112 | 0.9 | 8.7 | 0.00 | 0.00 | 0.00 | 63 | 1016.6 |
| 20260906104403 | 73 | 107 | 0.9 | 8.7 | 0.00 | 0.00 | 0.00 | 63 | 1016.7 |
| 20260906104203 | 73 | 67 | 0.9 | 8.7 | 0.00 | 0.00 | 0.00 | 64 | 1016.7 |
| 20260906104003 | 72 | 79 | 2.6 | 8.7 | 0.00 | 0.00 | 0.00 | 64 | 1016.8 |
| 20260906103803 | 72 | 90 | 5.2 | 8.7 | 0.00 | 0.00 | 0.00 | 64 | 1016.7 |
| 20260906103603 | 72 | 106 | 2.6 | 5.2 | 0.00 | 0.00 | 0.00 | 64 | 1016.8 |
| 20260906103403 | 72 | 74 | 2.6 | 5.2 | 0.00 | 0.00 | 0.00 | 64 | 1016.8 |
| 20260906103224 | 72 | 52 | 3.5 | 5.2 | 0.00 | 0.00 | 0.00 | 65 | 1016.8 |
| 20260906103025 | 72 | 344 | 2.6 | 5.2 | 0.00 | 0.00 | 0.00 | 65 | 1016.7 |
| 20260906102824 | 72 | 356 | 3.5 | 5.2 | 0.00 | 0.00 | 0.00 | 65 | 1016.7 |
| 20260906102603 | 72 | 345 | 3.5 | 5.2 | 0.00 | 0.00 | 0.00 | 65 | 1016.8 |
| 20260906102403 | 72 | 302 | 1.7 | 5.2 | 0.00 | 0.00 | 0.00 | 64 | 1016.8 |
| 20260906102203 | 72 | 311 | 1.7 | 5.2 | 0.00 | 0.00 | 0.00 | 64 | 1016.8 |
| 20260906102003 | 72 | 320 | 1.7 | 5.2 | 0.00 | 0.00 | 0.00 | 64 | 1016.8 |
| 20260906101803 | 72 | 318 | 3.5 | 5.2 | 0.00 | 0.00 | 0.00 | 63 | 1016.9 |
| 20260906101603 | 72 | 241 | 2.6 | 5.2 | 0.00 | 0.00 | 0.00 | 63 | 1016.9 |
| 20260906101403 | 73 | 9 | 1.7 | 4.3 | 0.00 | 0.00 | 0.00 | 63 | 1016.9 |
| 20260906101203 | 73 | 206 | 1.7 | 3.5 | 0.00 | 0.00 | 0.00 | 61 | 1016.9 |
| 20260906101003 | 73 | 54 | 2.6 | 4.3 | 0.00 | 0.00 | 0.00 | 61 | 1016.9 |
| 20260906100803 | 73 | 301 | 0.0 | 4.3 | 0.00 | 0.00 | 0.00 | 60 | 1016.9 |
| 20260906100603 | 73 | 303 | 0.0 | 4.3 | 0.00 | 0.00 | 0.00 | 60 | 1016.9 |
| 20260906100403 | 74 | 107 | 0.9 | 4.3 | 0.00 | 0.00 | 0.00 | 60 | 1016.9 |
| 20260906100203 | 74 | 49 | 1.7 | 5.2 | 0.00 | 0.00 | 0.00 | 60 | 1016.9 |
| 20260906100003 | 74 | 337 | 0.9 | 8.7 | 0.00 | 0.00 | 0.00 | 59 | 1016.9 |
| 20260906095803 | 74 | 254 | 0.9 | 9.6 | 0.00 | 0.00 | 0.00 | 59 | 1016.9 |
| 20260906095603 | 75 | 74 | 1.7 | 11.3 | 0.00 | 0.00 | 0.00 | 58 | 1016.8 |
| 20260906095403 | 76 | 95 | 2.6 | 17.4 | 0.00 | 0.00 | 0.00 | 57 | 1016.8 |
| 20260906095203 | 76 | 68 | 4.3 | 17.4 | 0.00 | 0.00 | 0.00 | 56 | 1016.8 |
| 20260906095003 | 77 | 74 | 6.1 | 17.4 | 0.00 | 0.00 | 0.00 | 55 | 1016.6 |
| 20260906094803 | 77 | 90 | 6.1 | 17.4 | 0.00 | 0.00 | 0.00 | 55 | 1016.5 |
| 20260906094603 | 78 | 134 | 6.1 | 17.4 | 0.00 | 0.00 | 0.00 | 54 | 1016.3 |
| 20260906094403 | 78 | 209 | 6.1 | 19.1 | 0.00 | 0.00 | 0.00 | 54 | 1016.3 |
| 20260906094203 | 78 | 233 | 8.7 | 19.1 | 0.00 | 0.00 | 0.00 | 54 | 1016.2 |
| 20260906094003 | 78 | 237 | 7.0 | 19.1 | 0.00 | 0.00 | 0.00 | 54 | 1016.1 |
| 20260906093803 | 78 | 230 | 9.6 | 19.1 | 0.00 | 0.00 | 0.00 | 55 | 1016.0 |
| 20260906093603 | 77 | 239 | 8.7 | 19.1 | 0.00 | 0.00 | 0.00 | 55 | 1016.1 |
| 20260906093403 | 77 | 225 | 8.7 | 15.6 | 0.00 | 0.00 | 0.00 | 55 | 1016.1 |
| 20260906093203 | 77 | 222 | 7.8 | 15.6 | 0.00 | 0.00 | 0.00 | 55 | 1016.2 |
| 20260906093003 | 77 | 229 | 7.0 | 16.5 | 0.00 | 0.00 | 0.00 | 56 | 1016.2 |
| 20260906092803 | 77 | 222 | 7.0 | 16.5 | 0.00 | 0.00 | 0.00 | 56 | 1016.2 |
| 20260906092603 | 76 | 214 | 7.0 | 16.5 | 0.00 | 0.00 | 0.00 | 56 | 1016.2 |
| 20260906092403 | 76 | 243 | 5.2 | 16.5 | 0.00 | 0.00 | 0.00 | 57 | 1016.3 |
| 20260906092203 | 76 | 210 | 5.2 | 16.5 | 0.00 | 0.00 | 0.00 | 57 | 1016.3 |
| 20260906092003 | 76 | 93 | 4.3 | 11.3 | 0.00 | 0.00 | 0.00 | 57 | 1016.3 |
| 20260906091803 | 76 | 36 | 1.7 | 8.7 | 0.00 | 0.00 | 0.00 | 57 | 1016.3 |
| 20260906091603 | 77 | 40 | 1.7 | 8.7 | 0.00 | 0.00 | 0.00 | 57 | 1016.3 |
| 20260906091403 | 77 | 4 | 0.9 | 15.6 | 0.00 | 0.00 | 0.00 | 56 | 1016.3 |
| 20260906091203 | 77 | 33 | 3.5 | 15.6 | 0.00 | 0.00 | 0.00 | 56 | 1016.4 |
| 20260906091004 | 78 | 81 | 5.2 | 15.6 | 0.00 | 0.00 | 0.00 | 56 | 1016.3 |
| 20260906090803 | 78 | 170 | 3.5 | 15.6 | 0.00 | 0.00 | 0.00 | 55 | 1016.3 |
| 20260906090603 | 78 | 256 | 4.3 | 19.1 | 0.00 | 0.00 | 0.00 | 55 | 1016.2 |
| 20260906090403 | 78 | 243 | 7.0 | 20.9 | 0.00 | 0.00 | 0.00 | 55 | 1016.0 |
| 20260906090203 | 77 | 253 | 7.8 | 20.9 | 0.00 | 0.00 | 0.00 | 56 | 1015.9 |
| 20260906090003 | 77 | 222 | 7.0 | 20.9 | 0.00 | 0.00 | 0.00 | 56 | 1015.9 |
| 20260906085804 | 76 | 234 | 9.6 | 20.9 | 0.00 | 0.00 | 0.00 | 57 | 1015.8 |
| 20260906085603 | 76 | 228 | 8.7 | 20.9 | 0.00 | 0.00 | 0.00 | 59 | 1015.8 |
| 20260906085403 | 75 | 241 | 6.1 | 13.9 | 0.00 | 0.00 | 0.00 | 60 | 1015.8 |
| 20260906085203 | 74 | 227 | 7.8 | 13.9 | 0.00 | 0.00 | 0.00 | 63 | 1015.8 |
| 20260906085003 | 73 | 235 | 6.1 | 13.9 | 0.00 | 0.00 | 0.00 | 65 | 1015.9 |
| 20260906084803 | 72 | 228 | 7.0 | 13.9 | 0.00 | 0.00 | 0.00 | 67 | 1015.9 |
| 20260906084603 | 71 | 238 | 1.7 | 10.4 | 0.00 | 0.00 | 0.00 | 69 | 1016.0 |
| 20260906084403 | 71 | 251 | 4.3 | 10.4 | 0.00 | 0.00 | 0.00 | 68 | 1016.2 |
| 20260906084203 | 71 | 299 | 2.6 | 4.3 | 0.00 | 0.00 | 0.00 | 68 | 1016.1 |
| 20260906084003 | 71 | 238 | 1.7 | 4.3 | 0.00 | 0.00 | 0.00 | 68 | 1016.2 |
| 20260906083803 | 71 | 250 | 0.9 | 4.3 | 0.00 | 0.00 | 0.00 | 68 | 1016.3 |
| 20260906083603 | 71 | 242 | 1.7 | 4.3 | 0.00 | 0.00 | 0.00 | 68 | 1016.5 |
| 20260906083403 | 71 | 242 | 1.7 | 4.3 | 0.00 | 0.00 | 0.00 | 67 | 1016.5 |
| 20260906083203 | 72 | 0 | 0.0 | 0.0 | 0.00 | 0.00 | 0.00 | 66 | 1016.5 |
| 20260906083003 | 72 | 0 | 0.0 | 0.0 | 0.00 | 0.00 | 0.00 | 66 | 1016.6 |
| 20260906082803 | 72 | 0 | 0.0 | 0.0 | 0.00 | 0.00 | 0.00 | 65 | 1016.6 |
| 20260906082603 | 73 | 0 | 0.0 | 3.5 | 0.00 | 0.00 | 0.00 | 65 | 1016.6 |
| 20260906082403 | 73 | 0 | 0.0 | 3.5 | 0.00 | 0.00 | 0.00 | 65 | 1016.6 |
| 20260906082203 | 73 | 0 | 0.0 | 3.5 | 0.00 | 0.00 | 0.00 | 65 | 1016.6 |
| 20260906082003 | 73 | 0 | 0.0 | 6.1 | 0.00 | 0.00 | 0.00 | 65 | 1016.6 |
| 20260906081803 | 73 | 72 | 0.9 | 6.1 | 0.00 | 0.00 | 0.00 | 65 | 1016.6 |
| 20260906081603 | 73 | 85 | 1.7 | 6.1 | 0.00 | 0.00 | 0.00 | 65 | 1016.6 |
| 20260906081403 | 72 | 190 | 0.9 | 6.1 | 0.00 | 0.00 | 0.00 | 66 | 1016.6 |
| 20260906081203 | 72 | 250 | 1.7 | 6.1 | 0.00 | 0.00 | 0.00 | 67 | 1016.5 |
| 20260906081003 | 72 | 247 | 2.6 | 4.3 | 0.00 | 0.00 | 0.00 | 67 | 1016.6 |
| 20260906080824 | 71 | 247 | 2.6 | 3.5 | 0.00 | 0.00 | 0.00 | 68 | 1016.8 |
| 20260906080624 | 71 | 209 | 1.7 | 3.5 | 0.00 | 0.00 | 0.00 | 68 | 1016.8 |
| 20260906080424 | 71 | 207 | 1.7 | 2.6 | 0.00 | 0.00 | 0.00 | 69 | 1016.8 |
| 20260906080203 | 71 | 204 | 1.7 | 4.3 | 0.00 | 0.00 | 0.00 | 69 | 1016.8 |
| 20260906080003 | 71 | 199 | 1.7 | 4.3 | 0.00 | 0.00 | 0.00 | 69 | 1016.8 |
| 20260906075803 | 71 | 208 | 1.7 | 4.3 | 0.00 | 0.00 | 0.00 | 68 | 1016.7 |
| 20260906075603 | 72 | 231 | 1.7 | 4.3 | 0.00 | 0.00 | 0.00 | 68 | 1016.7 |
| 20260906075403 | 72 | 246 | 2.6 | 4.3 | 0.00 | 0.00 | 0.00 | 68 | 1016.7 |
| 20260906075203 | 72 | 223 | 2.6 | 4.3 | 0.00 | 0.00 | 0.00 | 67 | 1016.7 |
| 20260906075024 | 72 | 170 | 0.9 | 4.3 | 0.00 | 0.00 | 0.00 | 67 | 1016.8 |
| 20260906074824 | 72 | 117 | 0.9 | 4.3 | 0.00 | 0.00 | 0.00 | 66 | 1016.8 |
| 20260906074624 | 73 | 117 | 0.0 | 4.3 | 0.00 | 0.00 | 0.00 | 66 | 1016.8 |
| 20260906074403 | 73 | 117 | 0.0 | 4.3 | 0.00 | 0.00 | 0.00 | 65 | 1016.8 |
| 20260906074203 | 73 | 122 | 0.0 | 4.3 | 0.00 | 0.00 | 0.00 | 65 | 1016.8 |
| 20260906074003 | 74 | 128 | 0.9 | 4.3 | 0.00 | 0.00 | 0.00 | 64 | 1016.7 |
| 20260906073824 | 74 | 128 | 0.9 | 10.4 | 0.00 | 0.00 | 0.00 | 64 | 1016.8 |
| 20260906073624 | 74 | 129 | 1.7 | 10.4 | 0.00 | 0.00 | 0.00 | 63 | 1016.8 |
| 20260906073424 | 75 | 0 | 0.0 | 10.4 | 0.00 | 0.00 | 0.00 | 61 | 1016.8 |
| 20260906073203 | 75 | 102 | 0.9 | 10.4 | 0.00 | 0.00 | 0.00 | 61 | 1016.8 |
| 20260906073003 | 76 | 108 | 1.7 | 10.4 | 0.00 | 0.00 | 0.00 | 59 | 1016.8 |
| 20260906072803 | 76 | 191 | 0.0 | 10.4 | 0.00 | 0.00 | 0.00 | 58 | 1016.7 |
| 20260906072603 | 77 | 153 | 0.9 | 13.9 | 0.00 | 0.00 | 0.00 | 57 | 1016.6 |
| 20260906072403 | 78 | 113 | 0.9 | 13.9 | 0.00 | 0.00 | 0.00 | 56 | 1016.6 |
| 20260906072203 | 79 | 96 | 2.6 | 14.8 | 0.00 | 0.00 | 0.00 | 55 | 1016.6 |
| 20260906072003 | 79 | 111 | 6.1 | 14.8 | 0.00 | 0.00 | 0.00 | 55 | 1016.7 |
| 20260906071804 | 79 | 236 | 7.8 | 14.8 | 0.00 | 0.00 | 0.00 | 54 | 1016.3 |
| 20260906071603 | 79 | 238 | 7.8 | 15.6 | 0.00 | 0.00 | 0.00 | 55 | 1016.3 |
| 20260906071403 | 79 | 247 | 10.4 | 15.6 | 0.00 | 0.00 | 0.00 | 56 | 1016.3 |
| 20260906071203 | 78 | 240 | 8.7 | 15.6 | 0.00 | 0.00 | 0.00 | 57 | 1016.3 |
| 20260906071003 | 77 | 249 | 8.7 | 15.6 | 0.00 | 0.00 | 0.00 | 58 | 1016.3 |
| 20260906070824 | 77 | 248 | 10.4 | 15.6 | 0.00 | 0.00 | 0.00 | 60 | 1016.4 |
| 20260906070624 | 76 | 249 | 9.6 | 13.9 | 0.00 | 0.00 | 0.00 | 63 | 1016.4 |
| 20260906070424 | 74 | 236 | 7.0 | 13.0 | 0.00 | 0.00 | 0.00 | 65 | 1016.5 |
| 20260906070224 | 73 | 252 | 5.2 | 11.3 | 0.00 | 0.00 | 0.00 | 66 | 1016.5 |
| 20260906070024 | 73 | 280 | 2.6 | 6.1 | 0.00 | 0.00 | 0.00 | 66 | 1016.6 |
| 20260906065824 | 73 | 272 | 2.6 | 5.2 | 0.00 | 0.00 | 0.00 | 64 | 1016.6 |
| 20260906065603 | 73 | 282 | 1.7 | 5.2 | 0.00 | 0.00 | 0.00 | 63 | 1016.6 |
| 20260906065403 | 73 | 257 | 1.7 | 8.7 | 0.00 | 0.00 | 0.00 | 63 | 1016.7 |
| 20260906065203 | 74 | 228 | 1.7 | 8.7 | 0.00 | 0.00 | 0.00 | 61 | 1016.7 |
| 20260906065003 | 74 | 158 | 0.9 | 8.7 | 0.00 | 0.00 | 0.00 | 60 | 1016.7 |
| 20260906064803 | 75 | 173 | 2.6 | 8.7 | 0.00 | 0.00 | 0.00 | 59 | 1016.6 |
| 20260906064603 | 75 | 198 | 1.7 | 8.7 | 0.00 | 0.00 | 0.00 | 57 | 1016.6 |
| 20260906064424 | 76 | 169 | 0.9 | 8.7 | 0.00 | 0.00 | 0.00 | 57 | 1016.6 |
| 20260906064225 | 77 | 159 | 1.7 | 8.7 | 0.00 | 0.00 | 0.00 | 56 | 1016.5 |
| 20260906064026 | 78 | 136 | 2.6 | 11.3 | 0.00 | 0.00 | 0.00 | 55 | 1016.5 |
| 20260906063803 | 78 | 112 | 2.6 | 11.3 | 0.00 | 0.00 | 0.00 | 55 | 1016.3 |
| 20260906063602 | 78 | 176 | 4.3 | 11.3 | 0.00 | 0.00 | 0.00 | 57 | 1016.3 |
| 20260906063403 | 78 | 215 | 4.3 | 11.3 | 0.00 | 0.00 | 0.00 | 58 | 1016.3 |
| 20260906063203 | 78 | 215 | 4.3 | 11.3 | 0.00 | 0.00 | 0.00 | 59 | 1016.2 |
| 20260906063003 | 77 | 199 | 3.5 | 7.8 | 0.00 | 0.00 | 0.00 | 60 | 1016.3 |
| 20260906062803 | 77 | 245 | 1.7 | 7.8 | 0.00 | 0.00 | 0.00 | 61 | 1016.2 |
| 20260906062603 | 76 | 232 | 3.5 | 8.7 | 0.00 | 0.00 | 0.00 | 63 | 1016.3 |
| 20260906062403 | 76 | 247 | 2.6 | 8.7 | 0.00 | 0.00 | 0.00 | 64 | 1016.3 |
| 20260906062203 | 75 | 245 | 4.3 | 8.7 | 0.00 | 0.00 | 0.00 | 66 | 1016.5 |
| 20260906062003 | 74 | 247 | 4.3 | 8.7 | 0.00 | 0.00 | 0.00 | 68 | 1016.5 |
| 20260906061803 | 73 | 245 | 3.5 | 8.7 | 0.00 | 0.00 | 0.00 | 70 | 1016.5 |
| 20260906061603 | 71 | 237 | 3.5 | 8.7 | 0.00 | 0.00 | 0.00 | 71 | 1016.6 |
| 20260906061403 | 70 | 233 | 3.5 | 8.7 | 0.00 | 0.00 | 0.00 | 73 | 1016.7 |
| 20260906061203 | 70 | 0 | 0.0 | 2.6 | 0.00 | 0.00 | 0.00 | 68 | 1016.7 |
| 20260906061003 | 70 | 278 | 0.0 | 2.6 | 0.00 | 0.00 | 0.00 | 65 | 1016.7 |
| 20260906060824 | 70 | 311 | 0.0 | 2.6 | 0.00 | 0.00 | 0.00 | 65 | 1016.8 |
| 20260906060624 | 70 | 334 | 0.9 | 2.6 | 0.00 | 0.00 | 0.00 | 65 | 1016.9 |
| 20260906060424 | 70 | 32 | 0.9 | 1.7 | 0.00 | 0.00 | 0.00 | 65 | 1016.9 |
| 20260906060203 | 70 | 93 | 0.9 | 2.6 | 0.00 | 0.00 | 0.00 | 64 | 1016.9 |
| 20260906060003 | 70 | 93 | 0.0 | 2.6 | 0.00 | 0.00 | 0.00 | 65 | 1016.9 |
| 20260906055803 | 70 | 93 | 0.0 | 2.6 | 0.00 | 0.00 | 0.00 | 64 | 1016.9 |
| 20260906055624 | 71 | 97 | 1.7 | 2.6 | 0.00 | 0.00 | 0.00 | 64 | 1016.9 |
| 20260906055424 | 71 | 169 | 1.7 | 2.6 | 0.00 | 0.00 | 0.00 | 64 | 1016.9 |
| 20260906055224 | 71 | 199 | 0.9 | 1.7 | 0.00 | 0.00 | 0.00 | 64 | 1016.9 |
| 20260906055003 | 71 | 213 | 0.9 | 1.7 | 0.00 | 0.00 | 0.00 | 64 | 1017.0 |
| 20260906054803 | 71 | 0 | 0.0 | 0.0 | 0.00 | 0.00 | 0.00 | 64 | 1017.1 |
| 20260906054603 | 71 | 0 | 0.0 | 0.9 | 0.00 | 0.00 | 0.00 | 64 | 1017.1 |
| 20260906054403 | 71 | 0 | 0.0 | 0.9 | 0.00 | 0.00 | 0.00 | 64 | 1017.1 |
| 20260906054203 | 71 | 0 | 0.0 | 0.9 | 0.00 | 0.00 | 0.00 | 64 | 1017.0 |
| 20260906054003 | 71 | 0 | 0.0 | 2.6 | 0.00 | 0.00 | 0.00 | 63 | 1017.2 |
| 20260906053803 | 71 | 280 | 0.0 | 2.6 | 0.00 | 0.00 | 0.00 | 64 | 1017.2 |
| 20260906053602 | 71 | 280 | 0.9 | 2.6 | 0.00 | 0.00 | 0.00 | 64 | 1017.1 |
| 20260906053403 | 71 | 280 | 0.9 | 3.5 | 0.00 | 0.00 | 0.00 | 64 | 1017.1 |
| 20260906053224 | 71 | 280 | 0.9 | 3.5 | 0.00 | 0.00 | 0.00 | 64 | 1017.2 |
| 20260906053024 | 71 | 281 | 1.7 | 3.5 | 0.00 | 0.00 | 0.00 | 64 | 1017.1 |
| 20260906052824 | 71 | 268 | 1.7 | 3.5 | 0.00 | 0.00 | 0.00 | 64 | 1017.2 |
| 20260906052602 | 71 | 286 | 2.6 | 3.5 | 0.00 | 0.00 | 0.00 | 64 | 1017.3 |
| 20260906052403 | 71 | 286 | 2.6 | 3.5 | 0.00 | 0.00 | 0.00 | 64 | 1017.4 |
| 20260906052203 | 71 | 272 | 0.9 | 2.6 | 0.00 | 0.00 | 0.00 | 64 | 1017.5 |
| 20260906052003 | 71 | 272 | 1.7 | 2.6 | 0.00 | 0.00 | 0.00 | 64 | 1017.6 |
| 20260906051803 | 71 | 258 | 0.9 | 1.7 | 0.00 | 0.00 | 0.00 | 63 | 1017.6 |
| 20260906051603 | 71 | 257 | 0.9 | 1.7 | 0.00 | 0.00 | 0.00 | 63 | 1017.7 |
| 20260906051403 | 71 | 257 | 0.0 | 1.7 | 0.00 | 0.00 | 0.00 | 63 | 1017.6 |
| 20260906051203 | 71 | 257 | 0.9 | 2.6 | 0.00 | 0.00 | 0.00 | 63 | 1017.5 |
| 20260906051003 | 71 | 215 | 0.9 | 3.5 | 0.00 | 0.00 | 0.00 | 63 | 1017.5 |
| 20260906050803 | 71 | 203 | 0.9 | 3.5 | 0.00 | 0.00 | 0.00 | 63 | 1017.5 |
| 20260906050603 | 71 | 203 | 0.9 | 3.5 | 0.00 | 0.00 | 0.00 | 63 | 1017.6 |
| 20260906050403 | 71 | 203 | 1.7 | 3.5 | 0.00 | 0.00 | 0.00 | 63 | 1017.5 |
| 20260906050203 | 71 | 184 | 1.7 | 3.5 | 0.00 | 0.00 | 0.00 | 63 | 1017.5 |
| 20260906050003 | 71 | 201 | 1.7 | 3.5 | 0.00 | 0.00 | 0.00 | 63 | 1017.4 |
| 20260906045803 | 71 | 0 | 0.0 | 3.5 | 0.00 | 0.00 | 0.00 | 63 | 1017.4 |
| 20260906045602 | 71 | 0 | 0.0 | 3.5 | 0.00 | 0.00 | 0.00 | 61 | 1017.4 |
| 20260906045403 | 72 | 144 | 0.0 | 3.5 | 0.00 | 0.00 | 0.00 | 61 | 1017.4 |
| 20260906045203 | 72 | 93 | 1.7 | 3.5 | 0.00 | 0.00 | 0.00 | 61 | 1017.4 |
| 20260906045024 | 72 | 83 | 2.6 | 3.5 | 0.00 | 0.00 | 0.00 | 60 | 1017.4 |
| 20260906044824 | 72 | 213 | 0.9 | 3.5 | 0.00 | 0.00 | 0.00 | 60 | 1017.2 |
| 20260906044624 | 72 | 213 | 0.9 | 5.2 | 0.00 | 0.00 | 0.00 | 60 | 1017.2 |
| 20260906044403 | 72 | 207 | 1.7 | 5.2 | 0.00 | 0.00 | 0.00 | 60 | 1017.1 |
| 20260906044203 | 72 | 86 | 1.7 | 5.2 | 0.00 | 0.00 | 0.00 | 60 | 1017.1 |
| 20260906044003 | 73 | 92 | 2.6 | 5.2 | 0.00 | 0.00 | 0.00 | 60 | 1017.0 |
| 20260906043803 | 73 | 111 | 2.6 | 5.2 | 0.00 | 0.00 | 0.00 | 60 | 1016.9 |
| 20260906043603 | 73 | 203 | 0.9 | 5.2 | 0.00 | 0.00 | 0.00 | 59 | 1016.9 |
| 20260906043403 | 73 | 206 | 0.9 | 5.2 | 0.00 | 0.00 | 0.00 | 60 | 1016.9 |
| 20260906043224 | 73 | 0 | 0.0 | 0.0 | 0.00 | 0.00 | 0.00 | 59 | 1016.9 |
| 20260906043024 | 73 | 0 | 0.0 | 0.0 | 0.00 | 0.00 | 0.00 | 59 | 1016.9 |
| 20260906042824 | 73 | 0 | 0.0 | 0.0 | 0.00 | 0.00 | 0.00 | 59 | 1016.9 |
| 20260906042603 | 73 | 0 | 0.0 | 0.0 | 0.00 | 0.00 | 0.00 | 59 | 1017.0 |
| 20260906042403 | 73 | 0 | 0.0 | 0.0 | 0.00 | 0.00 | 0.00 | 59 | 1017.1 |
| 20260906042203 | 74 | 0 | 0.0 | 0.0 | 0.00 | 0.00 | 0.00 | 59 | 1017.1 |
| 20260906042024 | 74 | 0 | 0.0 | 0.0 | 0.00 | 0.00 | 0.00 | 59 | 1017.2 |
| 20260906041824 | 74 | 0 | 0.0 | 0.0 | 0.00 | 0.00 | 0.00 | 59 | 1017.2 |
| 20260906041623 | 74 | 0 | 0.0 | 0.0 | 0.00 | 0.00 | 0.00 | 58 | 1017.1 |
| 20260906041403 | 74 | 0 | 0.0 | 0.0 | 0.00 | 0.00 | 0.00 | 58 | 1017.1 |
| 20260906041203 | 74 | 0 | 0.0 | 0.0 | 0.00 | 0.00 | 0.00 | 58 | 1017.1 |
| 20260906041003 | 74 | 0 | 0.0 | 0.0 | 0.00 | 0.00 | 0.00 | 57 | 1017.1 |
| 20260906040803 | 74 | 0 | 0.0 | 0.0 | 0.00 | 0.00 | 0.00 | 57 | 1017.1 |
| 20260906040602 | 75 | 0 | 0.0 | 0.0 | 0.00 | 0.00 | 0.00 | 56 | 1017.1 |
| 20260906040403 | 75 | 0 | 0.0 | 0.0 | 0.00 | 0.00 | 0.00 | 56 | 1017.1 |
| 20260906040203 | 75 | 0 | 0.0 | 0.0 | 0.00 | 0.00 | 0.00 | 56 | 1017.1 |
| 20260906040003 | 75 | 0 | 0.0 | 0.0 | 0.00 | 0.00 | 0.00 | 56 | 1017.2 |
| 20260906035803 | 75 | 0 | 0.0 | 0.0 | 0.00 | 0.00 | 0.00 | 56 | 1017.2 |
| 20260906035602 | 75 | 0 | 0.0 | 0.0 | 0.00 | 0.00 | 0.00 | 55 | 1017.2 |
| 20260906035403 | 76 | 0 | 0.0 | 0.0 | 0.00 | 0.00 | 0.00 | 55 | 1017.2 |
| 20260906035203 | 76 | 0 | 0.0 | 0.0 | 0.00 | 0.00 | 0.00 | 55 | 1017.3 |
| 20260906035024 | 76 | 0 | 0.0 | 0.0 | 0.00 | 0.00 | 0.00 | 54 | 1017.3 |
| 20260906034824 | 76 | 0 | 0.0 | 0.0 | 0.00 | 0.00 | 0.00 | 54 | 1017.4 |
| 20260906034624 | 76 | 0 | 0.0 | 0.0 | 0.00 | 0.00 | 0.00 | 54 | 1017.4 |
| 20260906034403 | 77 | 0 | 0.0 | 1.7 | 0.00 | 0.00 | 0.00 | 53 | 1017.4 |
| 20260906034203 | 77 | 0 | 0.0 | 2.6 | 0.00 | 0.00 | 0.00 | 52 | 1017.4 |
| 20260906034003 | 77 | 0 | 0.0 | 2.6 | 0.00 | 0.00 | 0.00 | 52 | 1017.4 |
| 20260906033803 | 78 | 0 | 0.0 | 2.6 | 0.00 | 0.00 | 0.00 | 51 | 1017.4 |
| 20260906033602 | 78 | 306 | 0.9 | 2.6 | 0.00 | 0.00 | 0.00 | 51 | 1017.4 |
| 20260906033403 | 78 | 306 | 1.7 | 2.6 | 0.00 | 0.00 | 0.00 | 50 | 1017.4 |
| 20260906033203 | 79 | 301 | 1.7 | 2.6 | 0.00 | 0.00 | 0.00 | 50 | 1017.5 |
| 20260906033004 | 79 | 308 | 1.7 | 2.6 | 0.00 | 0.00 | 0.00 | 49 | 1017.4 |
| 20260906032803 | 80 | 322 | 1.7 | 2.6 | 0.00 | 0.00 | 0.00 | 49 | 1017.4 |
| 20260906032623 | 80 | 349 | 1.7 | 2.6 | 0.00 | 0.00 | 0.00 | 48 | 1017.4 |
| 20260906032424 | 80 | 358 | 1.7 | 3.5 | 0.00 | 0.00 | 0.00 | 48 | 1017.4 |
| 20260906032224 | 81 | 17 | 0.9 | 3.5 | 0.00 | 0.00 | 0.00 | 47 | 1017.4 |
| 20260906032003 | 81 | 16 | 1.7 | 3.5 | 0.00 | 0.00 | 0.00 | 47 | 1017.3 |
| 20260906031803 | 81 | 342 | 1.7 | 5.2 | 0.00 | 0.00 | 0.00 | 47 | 1017.3 |
| 20260906031603 | 82 | 332 | 1.7 | 5.2 | 0.00 | 0.00 | 0.00 | 46 | 1017.3 |
| 20260906031403 | 82 | 22 | 0.9 | 6.1 | 0.00 | 0.00 | 0.00 | 47 | 1017.2 |
| 20260906031203 | 82 | 161 | 0.9 | 6.1 | 0.00 | 0.00 | 0.00 | 47 | 1017.2 |
| 20260906031003 | 82 | 145 | 1.7 | 6.1 | 0.00 | 0.00 | 0.00 | 47 | 1017.2 |
| 20260906030803 | 82 | 201 | 2.6 | 6.1 | 0.00 | 0.00 | 0.00 | 47 | 1017.1 |
| 20260906030602 | 82 | 213 | 3.5 | 8.7 | 0.00 | 0.00 | 0.00 | 47 | 1017.1 |
| 20260906030403 | 82 | 225 | 2.6 | 8.7 | 0.00 | 0.00 | 0.00 | 47 | 1017.0 |
| 20260906030225 | 82 | 216 | 3.5 | 8.7 | 0.00 | 0.00 | 0.00 | 47 | 1017.0 |
| 20260906030024 | 82 | 226 | 2.6 | 8.7 | 0.00 | 0.00 | 0.00 | 47 | 1017.0 |
| 20260906025824 | 82 | 222 | 3.5 | 9.6 | 0.00 | 0.00 | 0.00 | 47 | 1016.9 |
| 20260906025603 | 82 | 225 | 3.5 | 9.6 | 0.00 | 0.00 | 0.00 | 47 | 1016.9 |
| 20260906025403 | 82 | 216 | 3.5 | 9.6 | 0.00 | 0.00 | 0.00 | 47 | 1016.9 |
| 20260906025203 | 82 | 215 | 3.5 | 9.6 | 0.00 | 0.00 | 0.00 | 47 | 1016.9 |
| 20260906025003 | 82 | 204 | 4.3 | 9.6 | 0.00 | 0.00 | 0.00 | 47 | 1016.9 |
| 20260906024803 | 82 | 199 | 4.3 | 9.6 | 0.00 | 0.00 | 0.00 | 47 | 1016.8 |
| 20260906024603 | 82 | 206 | 3.5 | 9.6 | 0.00 | 0.00 | 0.00 | 47 | 1016.8 |
| 20260906024403 | 82 | 215 | 4.3 | 9.6 | 0.00 | 0.00 | 0.00 | 47 | 1016.7 |
| 20260906024203 | 82 | 225 | 5.2 | 9.6 | 0.00 | 0.00 | 0.00 | 47 | 1016.7 |
| 20260906024003 | 82 | 212 | 5.2 | 8.7 | 0.00 | 0.00 | 0.00 | 47 | 1016.6 |
| 20260906023803 | 82 | 224 | 4.3 | 7.8 | 0.00 | 0.00 | 0.00 | 46 | 1016.6 |
| 20260906023603 | 82 | 219 | 4.3 | 7.8 | 0.00 | 0.00 | 0.00 | 46 | 1016.5 |
| 20260906023403 | 82 | 205 | 3.5 | 8.7 | 0.00 | 0.00 | 0.00 | 45 | 1016.5 |
| 20260906023203 | 82 | 190 | 2.6 | 8.7 | 0.00 | 0.00 | 0.00 | 45 | 1016.5 |
| 20260906023003 | 82 | 201 | 2.6 | 8.7 | 0.00 | 0.00 | 0.00 | 45 | 1016.5 |
| 20260906022803 | 82 | 209 | 3.5 | 8.7 | 0.00 | 0.00 | 0.00 | 45 | 1016.5 |
| 20260906022602 | 82 | 183 | 3.5 | 8.7 | 0.00 | 0.00 | 0.00 | 45 | 1016.5 |
| 20260906022403 | 82 | 226 | 3.5 | 8.7 | 0.00 | 0.00 | 0.00 | 45 | 1016.4 |
| 20260906022203 | 82 | 232 | 4.3 | 8.7 | 0.00 | 0.00 | 0.00 | 45 | 1016.4 |
| 20260906022003 | 82 | 225 | 2.6 | 5.2 | 0.00 | 0.00 | 0.00 | 45 | 1016.4 |
| 20260906021803 | 82 | 212 | 2.6 | 8.7 | 0.00 | 0.00 | 0.00 | 45 | 1016.4 |
| 20260906021603 | 82 | 205 | 1.7 | 8.7 | 0.00 | 0.00 | 0.00 | 45 | 1016.4 |
| 20260906021403 | 82 | 102 | 0.9 | 8.7 | 0.00 | 0.00 | 0.00 | 45 | 1016.4 |
| 20260906021204 | 82 | 148 | 0.9 | 8.7 | 0.00 | 0.00 | 0.00 | 45 | 1016.4 |
| 20260906021003 | 82 | 239 | 3.5 | 8.7 | 0.00 | 0.00 | 0.00 | 45 | 1016.4 |
| 20260906020824 | 82 | 229 | 3.5 | 8.7 | 0.00 | 0.00 | 0.00 | 46 | 1016.3 |
| 20260906020624 | 82 | 226 | 3.5 | 7.8 | 0.00 | 0.00 | 0.00 | 46 | 1016.3 |
| 20260906020424 | 82 | 223 | 2.6 | 7.8 | 0.00 | 0.00 | 0.00 | 46 | 1016.3 |
| 20260906020203 | 82 | 232 | 2.6 | 8.7 | 0.00 | 0.00 | 0.00 | 45 | 1016.2 |
| 20260906020003 | 82 | 231 | 3.5 | 10.4 | 0.00 | 0.00 | 0.00 | 45 | 1016.3 |
| 20260906015803 | 82 | 231 | 4.3 | 10.4 | 0.00 | 0.00 | 0.00 | 45 | 1016.3 |
| 20260906015603 | 82 | 228 | 3.5 | 10.4 | 0.00 | 0.00 | 0.00 | 45 | 1016.3 |
| 20260906015403 | 82 | 236 | 5.2 | 10.4 | 0.00 | 0.00 | 0.00 | 45 | 1016.3 |
| 20260906015203 | 82 | 224 | 4.3 | 10.4 | 0.00 | 0.00 | 0.00 | 45 | 1016.3 |
| 20260906015003 | 82 | 213 | 3.5 | 8.7 | 0.00 | 0.00 | 0.00 | 45 | 1016.3 |
| 20260906014803 | 82 | 220 | 2.6 | 8.7 | 0.00 | 0.00 | 0.00 | 44 | 1016.3 |
| 20260906014603 | 82 | 217 | 3.5 | 8.7 | 0.00 | 0.00 | 0.00 | 44 | 1016.3 |
| 20260906014403 | 82 | 200 | 3.5 | 8.7 | 0.00 | 0.00 | 0.00 | 44 | 1016.3 |
| 20260906014203 | 82 | 226 | 4.3 | 8.7 | 0.00 | 0.00 | 0.00 | 44 | 1016.3 |
| 20260906014003 | 83 | 225 | 3.5 | 6.1 | 0.00 | 0.00 | 0.00 | 43 | 1016.3 |
| 20260906013802 | 83 | 215 | 1.7 | 7.8 | 0.00 | 0.00 | 0.00 | 43 | 1016.4 |
| 20260906013603 | 83 | 186 | 2.6 | 7.8 | 0.00 | 0.00 | 0.00 | 43 | 1016.3 |
| 20260906013403 | 83 | 194 | 2.6 | 8.7 | 0.00 | 0.00 | 0.00 | 42 | 1016.4 |
| 20260906013224 | 83 | 195 | 2.6 | 8.7 | 0.00 | 0.00 | 0.00 | 42 | 1016.3 |
| 20260906013024 | 83 | 209 | 4.3 | 8.7 | 0.00 | 0.00 | 0.00 | 42 | 1016.3 |
| 20260906012824 | 83 | 205 | 3.5 | 8.7 | 0.00 | 0.00 | 0.00 | 42 | 1016.3 |
| 20260906012603 | 83 | 186 | 2.6 | 8.7 | 0.00 | 0.00 | 0.00 | 40 | 1016.4 |
| 20260906012403 | 83 | 209 | 2.6 | 7.8 | 0.00 | 0.00 | 0.00 | 42 | 1016.4 |
| 20260906012203 | 83 | 196 | 3.5 | 7.8 | 0.00 | 0.00 | 0.00 | 40 | 1016.4 |
| 20260906012024 | 83 | 206 | 1.7 | 7.8 | 0.00 | 0.00 | 0.00 | 40 | 1016.4 |
| 20260906011824 | 83 | 202 | 1.7 | 7.8 | 0.00 | 0.00 | 0.00 | 40 | 1016.5 |
| 20260906011624 | 83 | 186 | 3.5 | 7.8 | 0.00 | 0.00 | 0.00 | 40 | 1016.4 |
| 20260906011403 | 84 | 218 | 2.6 | 6.1 | 0.00 | 0.00 | 0.00 | 39 | 1016.3 |
| 20260906011203 | 84 | 223 | 2.6 | 6.1 | 0.00 | 0.00 | 0.00 | 39 | 1016.3 |
| 20260906011003 | 84 | 203 | 1.7 | 6.1 | 0.00 | 0.00 | 0.00 | 39 | 1016.5 |
| 20260906010803 | 84 | 189 | 2.6 | 6.1 | 0.00 | 0.00 | 0.00 | 39 | 1016.5 |
| 20260906010603 | 84 | 186 | 1.7 | 7.8 | 0.00 | 0.00 | 0.00 | 38 | 1016.5 |
| 20260906010403 | 84 | 203 | 1.7 | 7.8 | 0.00 | 0.00 | 0.00 | 38 | 1016.6 |
| 20260906010224 | 84 | 190 | 1.7 | 9.6 | 0.00 | 0.00 | 0.00 | 38 | 1016.6 |
| 20260906010024 | 84 | 173 | 2.6 | 9.6 | 0.00 | 0.00 | 0.00 | 38 | 1016.7 |
| 20260906005824 | 84 | 177 | 2.6 | 9.6 | 0.00 | 0.00 | 0.00 | 38 | 1016.7 |
| 20260906005602 | 84 | 179 | 1.7 | 9.6 | 0.00 | 0.00 | 0.00 | 38 | 1016.8 |
| 20260906005402 | 84 | 178 | 3.5 | 9.6 | 0.00 | 0.00 | 0.00 | 38 | 1016.8 |
| 20260906005203 | 84 | 164 | 2.6 | 7.8 | 0.00 | 0.00 | 0.00 | 38 | 1016.9 |
| 20260906005003 | 84 | 177 | 1.7 | 6.1 | 0.00 | 0.00 | 0.00 | 38 | 1016.9 |
| 20260906004803 | 85 | 164 | 1.7 | 6.1 | 0.00 | 0.00 | 0.00 | 37 | 1016.8 |
| 20260906004603 | 85 | 183 | 1.7 | 6.1 | 0.00 | 0.00 | 0.00 | 37 | 1016.8 |
| 20260906004403 | 85 | 162 | 1.7 | 6.1 | 0.00 | 0.00 | 0.00 | 38 | 1016.8 |
| 20260906004203 | 85 | 151 | 2.6 | 7.8 | 0.00 | 0.00 | 0.00 | 37 | 1016.9 |
| 20260906004003 | 85 | 149 | 3.5 | 7.8 | 0.00 | 0.00 | 0.00 | 37 | 1016.9 |
| 20260906003806 | 85 | 153 | 2.6 | 8.7 | 0.00 | 0.00 | 0.00 | 37 | 1016.8 |
| 20260906003602 | 85 | 156 | 1.7 | 8.7 | 0.00 | 0.00 | 0.00 | 37 | 1016.9 |
| 20260906003403 | 85 | 161 | 3.5 | 8.7 | 0.00 | 0.00 | 0.00 | 37 | 1017.0 |
| 20260906003203 | 85 | 157 | 3.5 | 8.7 | 0.00 | 0.00 | 0.00 | 36 | 1017.0 |
| 20260906003002 | 85 | 157 | 3.5 | 8.7 | 0.00 | 0.00 | 0.00 | 37 | 1017.0 |
| 20260906002803 | 86 | 157 | 3.5 | 7.8 | 0.00 | 0.00 | 0.00 | 36 | 1016.9 |
| 20260906002603 | 86 | 149 | 2.6 | 7.8 | 0.00 | 0.00 | 0.00 | 36 | 1016.9 |
| 20260906002403 | 86 | 152 | 2.6 | 6.1 | 0.00 | 0.00 | 0.00 | 37 | 1016.8 |
| 20260906002203 | 86 | 166 | 2.6 | 6.1 | 0.00 | 0.00 | 0.00 | 37 | 1016.8 |
| 20260906002002 | 86 | 161 | 2.6 | 6.1 | 0.00 | 0.00 | 0.00 | 37 | 1016.8 |
| 20260906001806 | 86 | 154 | 1.7 | 3.5 | 0.00 | 0.00 | 0.00 | 37 | 1016.8 |
| 20260906001602 | 86 | 169 | 1.7 | 3.5 | 0.00 | 0.00 | 0.00 | 38 | 1016.8 |
| 20260906001403 | 86 | 161 | 1.7 | 3.5 | 0.00 | 0.00 | 0.00 | 37 | 1016.8 |
| 20260906001203 | 86 | 179 | 0.9 | 3.5 | 0.00 | 0.00 | 0.00 | 36 | 1016.7 |
| 20260906001003 | 86 | 183 | 1.7 | 5.2 | 0.00 | 0.00 | 0.00 | 36 | 1016.7 |
| 20260906000802 | 87 | 184 | 1.7 | 5.2 | 0.00 | 0.00 | 0.00 | 36 | 1016.7 |
| 20260906000603 | 87 | 193 | 1.7 | 5.2 | 0.00 | 0.00 | 0.00 | 36 | 1016.6 |
| 20260906000403 | 87 | 190 | 2.6 | 5.2 | 0.00 | 0.00 | 0.00 | 36 | 1016.6 |
| 20260906000204 | 87 | 171 | 1.7 | 5.2 | 0.00 | 0.00 | 0.00 | 36 | 1016.6 |
| 20260906000003 | 87 | 176 | 2.6 | 5.2 | 0.00 | 0.00 | 0.00 | 35 | 1016.5 |
| 20260905235803 | 87 | 168 | 1.7 | 5.2 | 0.00 | 0.00 | 0.00 | 36 | 1016.4 |
| 20260905235602 | 87 | 150 | 1.7 | 5.2 | 0.00 | 0.00 | 0.00 | 36 | 1016.5 |
| 20260905235403 | 87 | 171 | 2.6 | 4.3 | 0.00 | 0.00 | 0.00 | 36 | 1016.6 |
| 20260905235203 | 87 | 175 | 2.6 | 5.2 | 0.00 | 0.00 | 0.00 | 36 | 1016.6 |
| 20260905235004 | 87 | 186 | 1.7 | 5.2 | 0.00 | 0.00 | 0.00 | 37 | 1016.5 |
| 20260905234803 | 87 | 174 | 1.7 | 5.2 | 0.00 | 0.00 | 0.00 | 37 | 1016.5 |
| 20260905234603 | 87 | 172 | 1.7 | 5.2 | 0.00 | 0.00 | 0.00 | 37 | 1016.4 |
| 20260905234406 | 86 | 173 | 1.7 | 5.2 | 0.00 | 0.00 | 0.00 | 36 | 1016.4 |
| 20260905234202 | 86 | 157 | 2.6 | 4.3 | 0.00 | 0.00 | 0.00 | 36 | 1016.4 |
| 20260905234003 | 86 | 168 | 1.7 | 4.3 | 0.00 | 0.00 | 0.00 | 36 | 1016.4 |
| 20260905233823 | 86 | 162 | 2.6 | 4.3 | 0.00 | 0.00 | 0.00 | 37 | 1016.4 |
| 20260905233623 | 86 | 174 | 1.7 | 4.3 | 0.00 | 0.00 | 0.00 | 36 | 1016.3 |
| 20260905233423 | 86 | 170 | 1.7 | 3.5 | 0.00 | 0.00 | 0.00 | 37 | 1016.3 |
| 20260905233203 | 87 | 167 | 0.9 | 3.5 | 0.00 | 0.00 | 0.00 | 37 | 1016.2 |
| 20260905233003 | 87 | 168 | 1.7 | 3.5 | 0.00 | 0.00 | 0.00 | 36 | 1016.2 |
| 20260905232803 | 87 | 168 | 0.9 | 4.3 | 0.00 | 0.00 | 0.00 | 38 | 1016.2 |
| 20260905232602 | 87 | 168 | 0.9 | 7.8 | 0.00 | 0.00 | 0.00 | 38 | 1016.1 |
| 20260905232402 | 87 | 162 | 0.9 | 7.8 | 0.00 | 0.00 | 0.00 | 38 | 1016.1 |
| 20260905232203 | 87 | 138 | 2.6 | 7.8 | 0.00 | 0.00 | 0.00 | 37 | 1016.1 |
| 20260905232023 | 87 | 134 | 2.6 | 7.8 | 0.00 | 0.00 | 0.00 | 37 | 1016.1 |
| 20260905231823 | 87 | 145 | 4.3 | 7.8 | 0.00 | 0.00 | 0.00 | 36 | 1016.1 |
| 20260905231623 | 87 | 136 | 2.6 | 6.1 | 0.00 | 0.00 | 0.00 | 38 | 1016.0 |
| 20260905231402 | 87 | 161 | 1.7 | 6.1 | 0.00 | 0.00 | 0.00 | 36 | 1016.0 |
| 20260905231202 | 87 | 151 | 0.9 | 7.8 | 0.00 | 0.00 | 0.00 | 37 | 1016.0 |
| 20260905231003 | 87 | 149 | 2.6 | 7.8 | 0.00 | 0.00 | 0.00 | 36 | 1016.0 |
| 20260905230803 | 87 | 148 | 1.7 | 7.8 | 0.00 | 0.00 | 0.00 | 37 | 1016.0 |
| 20260905230603 | 88 | 143 | 4.3 | 7.8 | 0.00 | 0.00 | 0.00 | 36 | 1016.0 |
| 20260905230402 | 88 | 141 | 3.5 | 7.8 | 0.00 | 0.00 | 0.00 | 37 | 1016.0 |
| 20260905230203 | 88 | 141 | 3.5 | 7.8 | 0.00 | 0.00 | 0.00 | 36 | 1015.9 |
| 20260905230002 | 88 | 145 | 2.6 | 9.6 | 0.00 | 0.00 | 0.00 | 35 | 1015.9 |
| 20260905225803 | 88 | 158 | 3.5 | 10.4 | 0.00 | 0.00 | 0.00 | 35 | 1015.9 |
| 20260905225602 | 88 | 151 | 3.5 | 10.4 | 0.00 | 0.00 | 0.00 | 36 | 1015.9 |
| 20260905225403 | 88 | 151 | 4.3 | 10.4 | 0.00 | 0.00 | 0.00 | 35 | 1015.9 |
| 20260905225203 | 88 | 141 | 6.1 | 10.4 | 0.00 | 0.00 | 0.00 | 37 | 1016.0 |
| 20260905225004 | 88 | 136 | 7.0 | 10.4 | 0.00 | 0.00 | 0.00 | 36 | 1016.0 |
| 20260905224803 | 88 | 133 | 7.0 | 10.4 | 0.00 | 0.00 | 0.00 | 36 | 1016.0 |
| 20260905224602 | 88 | 127 | 6.1 | 10.4 | 0.00 | 0.00 | 0.00 | 36 | 1016.0 |
| 20260905224402 | 88 | 128 | 7.0 | 12.2 | 0.00 | 0.00 | 0.00 | 36 | 1016.0 |
| 20260905224202 | 89 | 122 | 7.0 | 12.2 | 0.00 | 0.00 | 0.00 | 36 | 1016.0 |
| 20260905224003 | 89 | 134 | 6.1 | 13.9 | 0.00 | 0.00 | 0.00 | 36 | 1015.9 |
| 20260905223803 | 89 | 140 | 6.1 | 13.9 | 0.00 | 0.00 | 0.00 | 36 | 1015.9 |
| 20260905223404 | 89 | 129 | 7.0 | 11.3 | 0.00 | 0.00 | 0.00 | 36 | 1015.8 |
| 20260905223204 | 89 | 133 | 7.0 | 11.3 | 0.00 | 0.00 | 0.00 | 36 | 1015.8 |
| 20260905223004 | 89 | 139 | 6.1 | 13.0 | 0.00 | 0.00 | 0.00 | 37 | 1015.7 |
| 20260905222804 | 89 | 138 | 7.0 | 13.0 | 0.00 | 0.00 | 0.00 | 36 | 1015.7 |
| 20260905222603 | 89 | 144 | 8.7 | 13.0 | 0.00 | 0.00 | 0.00 | 35 | 1015.7 |
| 20260905222403 | 89 | 137 | 7.0 | 13.0 | 0.00 | 0.00 | 0.00 | 35 | 1015.7 |
| 20260905222204 | 89 | 128 | 8.7 | 13.0 | 0.00 | 0.00 | 0.00 | 35 | 1015.7 |
| 20260905222004 | 89 | 126 | 6.1 | 12.2 | 0.00 | 0.00 | 0.00 | 35 | 1015.8 |
| 20260905221804 | 90 | 126 | 6.1 | 12.2 | 0.00 | 0.00 | 0.00 | 36 | 1015.7 |
| 20260905221604 | 90 | 134 | 7.8 | 12.2 | 0.00 | 0.00 | 0.00 | 34 | 1015.8 |
| 20260905221404 | 90 | 129 | 7.8 | 11.3 | 0.00 | 0.00 | 0.00 | 34 | 1015.7 |
| 20260905221204 | 90 | 132 | 7.0 | 10.4 | 0.00 | 0.00 | 0.00 | 35 | 1015.7 |
| 20260905221004 | 90 | 120 | 7.0 | 9.6 | 0.00 | 0.00 | 0.00 | 34 | 1015.7 |
| 20260905220825 | 90 | 116 | 5.2 | 9.6 | 0.00 | 0.00 | 0.00 | 35 | 1015.7 |
| 20260905220625 | 90 | 126 | 5.2 | 9.6 | 0.00 | 0.00 | 0.00 | 34 | 1015.7 |
| 20260905220425 | 90 | 124 | 5.2 | 9.6 | 0.00 | 0.00 | 0.00 | 35 | 1015.7 |
| 20260905220204 | 90 | 116 | 4.3 | 9.6 | 0.00 | 0.00 | 0.00 | 35 | 1015.7 |
| 20260905220004 | 90 | 116 | 5.2 | 9.6 | 0.00 | 0.00 | 0.00 | 34 | 1015.7 |
| 20260905215804 | 90 | 107 | 5.2 | 8.7 | 0.00 | 0.00 | 0.00 | 34 | 1015.7 |
| 20260905215604 | 90 | 102 | 5.2 | 8.7 | 0.00 | 0.00 | 0.00 | 34 | 1015.7 |
| 20260905215404 | 91 | 97 | 4.3 | 7.8 | 0.00 | 0.00 | 0.00 | 33 | 1015.7 |
| 20260905215204 | 91 | 93 | 3.5 | 7.8 | 0.00 | 0.00 | 0.00 | 32 | 1015.7 |
| 20260905215025 | 91 | 88 | 3.5 | 7.8 | 0.00 | 0.00 | 0.00 | 33 | 1015.7 |
| 20260905214824 | 92 | 103 | 3.5 | 7.8 | 0.00 | 0.00 | 0.00 | 32 | 1015.7 |
| 20260905214625 | 92 | 110 | 3.5 | 7.8 | 0.00 | 0.00 | 0.00 | 31 | 1015.7 |
| 20260905214404 | 92 | 106 | 3.5 | 7.8 | 0.00 | 0.00 | 0.00 | 32 | 1015.7 |
| 20260905214204 | 92 | 130 | 2.6 | 6.1 | 0.00 | 0.00 | 0.00 | 33 | 1015.7 |
| 20260905214004 | 91 | 153 | 3.5 | 11.3 | 0.00 | 0.00 | 0.00 | 34 | 1015.8 |
| 20260905213826 | 91 | 133 | 4.3 | 11.3 | 0.00 | 0.00 | 0.00 | 34 | 1015.8 |
| 20260905213624 | 91 | 121 | 3.5 | 11.3 | 0.00 | 0.00 | 0.00 | 34 | 1015.8 |
| 20260905213425 | 91 | 106 | 3.5 | 11.3 | 0.00 | 0.00 | 0.00 | 33 | 1015.7 |
| 20260905213204 | 91 | 109 | 5.2 | 11.3 | 0.00 | 0.00 | 0.00 | 32 | 1015.8 |
| 20260905213004 | 91 | 96 | 7.0 | 10.4 | 0.00 | 0.00 | 0.00 | 33 | 1015.8 |
| 20260905212804 | 91 | 104 | 5.2 | 7.8 | 0.00 | 0.00 | 0.00 | 32 | 1015.9 |
| 20260905212604 | 91 | 105 | 4.3 | 7.8 | 0.00 | 0.00 | 0.00 | 31 | 1015.9 |
| 20260905212403 | 91 | 112 | 3.5 | 6.1 | 0.00 | 0.00 | 0.00 | 32 | 1015.9 |
| 20260905212204 | 91 | 121 | 3.5 | 5.2 | 0.00 | 0.00 | 0.00 | 31 | 1015.9 |
| 20260905212004 | 91 | 138 | 1.7 | 3.5 | 0.00 | 0.00 | 0.00 | 32 | 1015.9 |